Time,TemperatureF,DewpointF,PressureIn,WindDirection,WindDirectionDegrees,WindSpeedMPH,WindSpeedGustMPH,Humidity,HourlyPrecipIn,Conditions,Clouds,dailyrainin,SoftwareType,DateUTC
2013-06-18 00:01:00,61.4,51.2,29.96,SW,225,3.4,4.0,69,0.00,,,0.00,WUHU216HW,2013-06-18 06:01:00,
2013-06-18 00:02:00,61.4,51.2,29.96,SW,225,2.9,4.0,69,0.00,,,0.00,WUHU216HW,2013-06-18 06:02:00,
2013-06-18 00:04:00,61.4,51.2,29.96,SSW,203,3.4,4.0,69,0.00,,,0.00,WUHU216HW,2013-06-18 06:04:00,
2013-06-18 00:05:00,61.4,51.2,29.96,SW,225,3.1,4.0,69,0.00,,,0.00,WUHU216HW,2013-06-18 06:05:00,
2013-06-18 00:06:00,61.2,51.0,29.96,SW,225,1.8,4.0,69,0.00,,,0.00,WUHU216HW,2013-06-18 06:06:00,
2013-06-18 00:09:00,61.2,51.0,29.96,SSW,203,2.5,4.0,69,0.00,,,0.00,WUHU216HW,2013-06-18 06:09:00,
2013-06-18 00:13:00,61.2,51.5,29.95,SE,135,4.5,5.3,70,0.00,,,0.00,WUHU216HW,2013-06-18 06:13:00,
2013-06-18 00:14:00,61.2,51.5,29.95,SE,135,4.5,5.3,70,0.00,,,0.00,WUHU216HW,2013-06-18 06:14:00,
2013-06-18 00:15:00,61.2,51.5,29.96,SSE,158,4.0,5.3,70,0.00,,,0.00,WUHU216HW,2013-06-18 06:15:00,
2013-06-18 00:17:00,61.2,51.9,29.95,SE,135,0.9,5.3,71,0.00,,,0.00,WUHU216HW,2013-06-18 06:17:00,
2013-06-18 00:19:00,61.4,51.9,29.95,SE,135,2.2,5.3,71,0.00,,,0.00,WUHU216HW,2013-06-18 06:19:00,
2013-06-18 00:21:00,61.2,51.9,29.95,SSE,158,0.4,5.3,71,0.00,,,0.00,WUHU216HW,2013-06-18 06:21:00,
2013-06-18 00:22:00,61.2,51.5,29.95,South,180,1.8,5.3,70,0.00,,,0.00,WUHU216HW,2013-06-18 06:22:00,
2013-06-18 00:23:00,61.2,51.5,29.95,SSW,203,1.1,5.3,70,0.00,,,0.00,WUHU216HW,2013-06-18 06:23:00,
2013-06-18 00:24:00,61.2,51.5,29.95,SSW,203,1.1,5.3,70,0.00,,,0.00,WUHU216HW,2013-06-18 06:24:00,
2013-06-18 00:25:00,61.2,51.0,29.95,SSW,203,0.0,4.7,69,0.00,,,0.00,WUHU216HW,2013-06-18 06:25:00,
2013-06-18 00:26:00,61.0,50.9,29.95,WNW,293,1.3,2.6,69,0.00,,,0.00,WUHU216HW,2013-06-18 06:26:00,
2013-06-18 00:28:00,61.0,51.3,29.96,WNW,293,1.1,2.6,70,0.00,,,0.00,WUHU216HW,2013-06-18 06:28:00,
2013-06-18 00:29:00,61.0,51.3,29.96,WNW,293,0.7,2.6,70,0.00,,,0.00,WUHU216HW,2013-06-18 06:29:00,
2013-06-18 00:30:00,60.8,51.1,29.95,NW,315,1.1,2.6,70,0.00,,,0.00,WUHU216HW,2013-06-18 06:30:00,
2013-06-18 00:31:00,60.8,51.1,29.95,NNW,338,1.3,2.6,70,0.00,,,0.00,WUHU216HW,2013-06-18 06:31:00,
2013-06-18 00:33:00,60.8,51.1,29.95,NNW,338,0.2,2.1,70,0.00,,,0.00,WUHU216HW,2013-06-18 06:33:00,
2013-06-18 00:34:00,60.8,51.1,29.95,NNW,338,0.0,2.1,70,0.00,,,0.00,WUHU216HW,2013-06-18 06:34:00,
2013-06-18 00:36:00,60.8,51.1,29.95,SSE,158,1.8,2.1,70,0.00,,,0.00,WUHU216HW,2013-06-18 06:36:00,
2013-06-18 00:37:00,60.8,51.1,29.95,SSE,158,0.4,2.1,70,0.00,,,0.00,WUHU216HW,2013-06-18 06:37:00,
2013-06-18 00:38:00,60.8,51.5,29.95,SSE,158,2.0,2.3,71,0.00,,,0.00,WUHU216HW,2013-06-18 06:38:00,
2013-06-18 00:40:00,60.8,51.5,29.96,SSE,158,1.8,2.9,71,0.00,,,0.00,WUHU216HW,2013-06-18 06:40:00,
2013-06-18 00:42:00,60.7,51.3,29.95,SSE,158,2.5,2.9,71,0.00,,,0.00,WUHU216HW,2013-06-18 06:42:00,
2013-06-18 00:43:00,60.7,52.0,29.95,SSE,158,3.1,3.6,73,0.00,,,0.00,WUHU216HW,2013-06-18 06:43:00,
2013-06-18 00:45:00,60.7,52.0,29.95,South,180,3.6,4.2,73,0.00,,,0.00,WUHU216HW,2013-06-18 06:45:00,
2013-06-18 00:46:00,60.7,51.7,29.95,South,180,0.4,4.2,72,0.00,,,0.00,WUHU216HW,2013-06-18 06:46:00,
2013-06-18 00:47:00,60.5,51.5,29.96,WSW,248,2.5,4.2,72,0.00,,,0.00,WUHU216HW,2013-06-18 06:47:00,
2013-06-18 00:50:00,60.5,51.5,29.96,West,270,0.0,4.2,72,0.00,,,0.00,WUHU216HW,2013-06-18 06:50:00,
2013-06-18 00:51:00,60.3,51.3,29.96,NNW,338,1.3,4.2,72,0.00,,,0.00,WUHU216HW,2013-06-18 06:51:00,
2013-06-18 00:53:00,60.3,51.3,29.95,NNW,338,1.3,4.2,72,0.00,,,0.00,WUHU216HW,2013-06-18 06:53:00,
2013-06-18 00:54:00,60.3,51.3,29.95,North,0,0.7,4.2,72,0.00,,,0.00,WUHU216HW,2013-06-18 06:54:00,
2013-06-18 00:55:00,60.3,51.3,29.95,North,0,0.7,4.2,72,0.00,,,0.00,WUHU216HW,2013-06-18 06:55:00,
2013-06-18 00:56:00,60.1,50.8,29.95,North,0,0.0,3.4,71,0.00,,,0.00,WUHU216HW,2013-06-18 06:56:00,
2013-06-18 00:57:00,60.1,50.8,29.95,North,0,0.0,3.4,71,0.00,,,0.00,WUHU216HW,2013-06-18 06:57:00,
2013-06-18 00:58:00,60.1,50.8,29.95,WNW,293,0.0,2.9,71,0.00,,,0.00,WUHU216HW,2013-06-18 06:58:00,
2013-06-18 01:00:00,60.1,50.8,29.95,WNW,293,1.1,2.9,71,0.00,,,0.00,WUHU216HW,2013-06-18 07:00:00,
2013-06-18 01:01:00,60.1,50.8,29.96,WNW,293,0.4,2.9,71,0.00,,,0.00,WUHU216HW,2013-06-18 07:01:00,
2013-06-18 01:03:00,60.1,50.8,29.96,WNW,293,0.0,1.5,71,0.00,,,0.00,WUHU216HW,2013-06-18 07:03:00,
2013-06-18 01:04:00,60.1,50.8,29.96,WSW,248,1.8,2.1,71,0.00,,,0.00,WUHU216HW,2013-06-18 07:04:00,
2013-06-18 01:05:00,60.1,50.8,29.96,WSW,248,1.8,2.1,71,0.00,,,0.00,WUHU216HW,2013-06-18 07:05:00,
2013-06-18 01:06:00,60.1,50.8,29.96,WSW,248,0.4,2.1,71,0.00,,,0.00,WUHU216HW,2013-06-18 07:06:00,
2013-06-18 01:08:00,59.9,50.6,29.96,WSW,248,0.0,2.1,71,0.00,,,0.00,WUHU216HW,2013-06-18 07:08:00,
2013-06-18 01:10:00,59.9,50.6,29.96,WSW,248,0.0,2.1,71,0.00,,,0.00,WUHU216HW,2013-06-18 07:10:00,
2013-06-18 01:11:00,59.8,50.4,29.96,NW,315,0.0,2.1,71,0.00,,,0.00,WUHU216HW,2013-06-18 07:11:00,
2013-06-18 01:13:00,59.8,50.4,29.96,NW,315,0.0,2.1,71,0.00,,,0.00,WUHU216HW,2013-06-18 07:13:00,
2013-06-18 01:14:00,59.8,50.4,29.96,NNE,23,0.0,2.1,71,0.00,,,0.00,WUHU216HW,2013-06-18 07:14:00,
2013-06-18 01:15:00,59.8,50.4,29.96,NNE,23,0.0,2.1,71,0.00,,,0.00,WUHU216HW,2013-06-18 07:15:00,
2013-06-18 01:17:00,59.4,50.4,29.96,East,90,0.9,1.3,72,0.00,,,0.00,WUHU216HW,2013-06-18 07:17:00,
2013-06-18 01:19:00,59.4,50.4,29.96,East,90,0.4,1.3,72,0.00,,,0.00,WUHU216HW,2013-06-18 07:19:00,
2013-06-18 01:20:00,59.4,50.4,29.96,East,90,0.4,1.3,72,0.00,,,0.00,WUHU216HW,2013-06-18 07:20:00,
2013-06-18 01:22:00,59.0,50.0,29.96,East,90,0.4,1.3,72,0.00,,,0.00,WUHU216HW,2013-06-18 07:22:00,
2013-06-18 01:24:00,58.9,50.2,29.96,East,90,1.6,1.9,73,0.00,,,0.00,WUHU216HW,2013-06-18 07:24:00,
2013-06-18 01:25:00,58.9,50.2,29.96,East,90,1.6,1.9,73,0.00,,,0.00,WUHU216HW,2013-06-18 07:25:00,
2013-06-18 01:27:00,58.7,51.5,29.96,SE,135,2.5,2.9,77,0.00,,,0.00,WUHU216HW,2013-06-18 07:27:00,
2013-06-18 01:30:00,58.5,51.7,29.96,SSE,158,2.5,4.0,78,0.00,,,0.00,WUHU216HW,2013-06-18 07:30:00,
2013-06-18 01:31:00,58.3,51.5,29.96,SSE,158,3.1,4.4,78,0.00,,,0.00,WUHU216HW,2013-06-18 07:31:00,
2013-06-18 01:33:00,58.1,51.7,29.96,SE,135,2.7,4.4,79,0.00,,,0.00,WUHU216HW,2013-06-18 07:33:00,
2013-06-18 01:34:00,58.1,51.7,29.96,SE,135,1.8,4.4,79,0.00,,,0.00,WUHU216HW,2013-06-18 07:34:00,
2013-06-18 01:35:00,58.1,51.7,29.96,SE,135,1.8,4.4,79,0.00,,,0.00,WUHU216HW,2013-06-18 07:35:00,
2013-06-18 01:37:00,58.0,51.5,29.95,ESE,113,1.1,4.4,79,0.00,,,0.00,WUHU216HW,2013-06-18 07:37:00,
2013-06-18 01:40:00,58.0,51.1,29.95,ENE,68,0.9,4.4,78,0.00,,,0.00,WUHU216HW,2013-06-18 07:40:00,
2013-06-18 01:41:00,58.0,51.1,29.95,ENE,68,0.0,3.4,78,0.00,,,0.00,WUHU216HW,2013-06-18 07:41:00,
2013-06-18 01:42:00,58.0,50.8,29.96,NNE,23,0.0,3.4,77,0.00,,,0.00,WUHU216HW,2013-06-18 07:42:00,
2013-06-18 01:45:00,58.0,50.8,29.96,SW,225,1.1,3.4,77,0.00,,,0.00,WUHU216HW,2013-06-18 07:45:00,
2013-06-18 01:46:00,58.0,50.8,29.96,SSW,203,1.8,2.6,77,0.00,,,0.00,WUHU216HW,2013-06-18 07:46:00,
2013-06-18 01:47:00,57.8,50.6,29.96,South,180,1.3,2.6,77,0.00,,,0.00,WUHU216HW,2013-06-18 07:47:00,
2013-06-18 01:49:00,57.8,50.6,29.96,South,180,0.9,2.6,77,0.00,,,0.00,WUHU216HW,2013-06-18 07:49:00,
2013-06-18 01:50:00,57.8,50.6,29.96,SSE,158,0.7,2.6,77,0.00,,,0.00,WUHU216HW,2013-06-18 07:50:00,
2013-06-18 01:51:00,57.8,50.6,29.96,SSE,158,0.7,2.6,77,0.00,,,0.00,WUHU216HW,2013-06-18 07:51:00,
2013-06-18 01:55:00,57.6,50.8,29.96,SSE,158,2.5,2.9,78,0.00,,,0.00,WUHU216HW,2013-06-18 07:55:00,
2013-06-18 01:56:00,57.6,50.8,29.96,SSE,158,2.5,2.9,78,0.00,,,0.00,WUHU216HW,2013-06-18 07:56:00,
2013-06-18 02:00:00,57.4,50.9,29.96,South,180,2.5,4.0,79,0.00,,,0.00,WUHU216HW,2013-06-18 08:00:00,
2013-06-18 02:01:00,57.4,50.9,29.96,South,180,2.5,4.0,79,0.00,,,0.00,WUHU216HW,2013-06-18 08:01:00,
2013-06-18 02:02:00,57.2,50.8,29.96,South,180,2.5,4.0,79,0.00,,,0.00,WUHU216HW,2013-06-18 08:02:00,
2013-06-18 02:03:00,57.2,50.8,29.96,South,180,1.8,4.0,79,0.00,,,0.00,WUHU216HW,2013-06-18 08:03:00,
2013-06-18 02:04:00,57.2,51.1,29.96,South,180,2.0,4.0,80,0.00,,,0.00,WUHU216HW,2013-06-18 08:04:00,
2013-06-18 02:06:00,57.2,51.1,29.96,South,180,1.8,4.0,80,0.00,,,0.00,WUHU216HW,2013-06-18 08:06:00,
2013-06-18 02:07:00,57.2,50.8,29.96,SSW,203,2.5,4.0,79,0.00,,,0.00,WUHU216HW,2013-06-18 08:07:00,
2013-06-18 02:10:00,57.2,50.8,29.96,SSW,203,3.4,4.2,79,0.00,,,0.00,WUHU216HW,2013-06-18 08:10:00,
2013-06-18 02:11:00,57.2,50.8,29.96,SSW,203,3.4,4.2,79,0.00,,,0.00,WUHU216HW,2013-06-18 08:11:00,
2013-06-18 02:14:00,57.2,50.4,29.96,WSW,248,1.8,4.2,78,0.00,,,0.00,WUHU216HW,2013-06-18 08:14:00,
2013-06-18 02:16:00,57.1,50.2,29.96,West,270,1.8,4.2,78,0.00,,,0.00,WUHU216HW,2013-06-18 08:16:00,
2013-06-18 02:18:00,57.1,50.2,29.96,West,270,1.3,4.2,78,0.00,,,0.00,WUHU216HW,2013-06-18 08:18:00,
2013-06-18 02:19:00,57.1,50.2,29.96,West,270,0.9,4.2,78,0.00,,,0.00,WUHU216HW,2013-06-18 08:19:00,
2013-06-18 02:21:00,56.9,50.0,29.96,West,270,0.0,4.2,78,0.00,,,0.00,WUHU216HW,2013-06-18 08:21:00,
2013-06-18 02:22:00,56.9,50.0,29.96,NNW,338,0.2,3.4,78,0.00,,,0.00,WUHU216HW,2013-06-18 08:22:00,
2013-06-18 02:24:00,56.9,50.0,29.96,North,0,0.0,2.1,78,0.00,,,0.00,WUHU216HW,2013-06-18 08:24:00,
2013-06-18 02:25:00,56.9,50.0,29.96,North,0,0.4,2.1,78,0.00,,,0.00,WUHU216HW,2013-06-18 08:25:00,
2013-06-18 02:26:00,56.9,50.0,29.96,North,0,0.4,2.1,78,0.00,,,0.00,WUHU216HW,2013-06-18 08:26:00,
2013-06-18 02:28:00,56.9,49.7,29.96,NE,45,1.8,2.9,77,0.00,,,0.00,WUHU216HW,2013-06-18 08:28:00,
2013-06-18 02:29:00,56.9,49.7,29.96,NE,45,1.8,2.9,77,0.00,,,0.00,WUHU216HW,2013-06-18 08:29:00,
2013-06-18 02:31:00,56.7,49.5,29.96,East,90,1.8,2.9,77,0.00,,,0.00,WUHU216HW,2013-06-18 08:31:00,
2013-06-18 02:32:00,56.7,49.5,29.96,ESE,113,2.0,3.6,77,0.00,,,0.00,WUHU216HW,2013-06-18 08:32:00,
2013-06-18 02:34:00,56.5,49.3,29.95,East,90,2.5,3.6,77,0.00,,,0.00,WUHU216HW,2013-06-18 08:34:00,
2013-06-18 02:35:00,56.5,49.3,29.95,NE,45,1.1,3.6,77,0.00,,,0.00,WUHU216HW,2013-06-18 08:35:00,
2013-06-18 02:36:00,56.5,49.3,29.96,ENE,68,0.9,3.6,77,0.00,,,0.00,WUHU216HW,2013-06-18 08:36:00,
2013-06-18 02:38:00,56.5,49.3,29.96,ENE,68,1.1,3.6,77,0.00,,,0.00,WUHU216HW,2013-06-18 08:38:00,
2013-06-18 02:39:00,56.3,49.1,29.96,ENE,68,0.7,3.6,77,0.00,,,0.00,WUHU216HW,2013-06-18 08:39:00,
2013-06-18 02:41:00,56.3,49.1,29.96,NNE,23,1.1,3.6,77,0.00,,,0.00,WUHU216HW,2013-06-18 08:41:00,
2013-06-18 02:42:00,56.3,48.8,29.96,North,0,0.0,3.2,76,0.00,,,0.00,WUHU216HW,2013-06-18 08:42:00,
2013-06-18 02:44:00,56.2,48.6,29.96,North,0,0.0,3.2,76,0.00,,,0.00,WUHU216HW,2013-06-18 08:44:00,
2013-06-18 02:46:00,56.0,48.5,29.96,West,270,0.0,2.1,76,0.00,,,0.00,WUHU216HW,2013-06-18 08:46:00,
2013-06-18 02:48:00,56.0,48.5,29.96,West,270,0.0,2.1,76,0.00,,,0.00,WUHU216HW,2013-06-18 08:48:00,
2013-06-18 02:51:00,55.8,48.3,29.96,WSW,248,1.1,1.3,76,0.00,,,0.00,WUHU216HW,2013-06-18 08:51:00,
2013-06-18 02:52:00,55.8,48.3,29.96,WSW,248,1.3,1.9,76,0.00,,,0.00,WUHU216HW,2013-06-18 08:52:00,
2013-06-18 02:54:00,55.6,48.5,29.96,SW,225,2.5,2.9,77,0.00,,,0.00,WUHU216HW,2013-06-18 08:54:00,
2013-06-18 02:56:00,55.4,48.0,29.96,SW,225,1.8,2.9,76,0.00,,,0.00,WUHU216HW,2013-06-18 08:56:00,
2013-06-18 02:58:00,55.4,48.0,29.96,WSW,248,2.2,2.9,76,0.00,,,0.00,WUHU216HW,2013-06-18 08:58:00,
2013-06-18 03:00:00,55.3,48.2,29.96,WSW,248,2.0,2.9,77,0.00,,,0.00,WUHU216HW,2013-06-18 09:00:00,
2013-06-18 03:01:00,55.1,48.0,29.96,WSW,248,1.8,2.9,77,0.00,,,0.00,WUHU216HW,2013-06-18 09:01:00,
2013-06-18 03:02:00,55.1,48.0,29.96,WSW,248,1.8,2.9,77,0.00,,,0.00,WUHU216HW,2013-06-18 09:02:00,
2013-06-18 03:04:00,55.1,48.3,29.96,West,270,2.2,3.2,78,0.00,,,0.00,WUHU216HW,2013-06-18 09:04:00,
2013-06-18 03:05:00,54.7,48.3,29.96,West,270,2.2,3.2,79,0.00,,,0.00,WUHU216HW,2013-06-18 09:05:00,
2013-06-18 03:07:00,54.7,48.0,29.96,West,270,2.5,3.2,78,0.00,,,0.00,WUHU216HW,2013-06-18 09:07:00,
2013-06-18 03:08:00,54.5,48.2,29.96,WNW,293,2.0,3.2,79,0.00,,,0.00,WUHU216HW,2013-06-18 09:08:00,
2013-06-18 03:09:00,54.5,48.2,29.96,NW,315,2.0,3.2,79,0.00,,,0.00,WUHU216HW,2013-06-18 09:09:00,
2013-06-18 03:11:00,54.4,48.0,29.96,NW,315,1.6,3.2,79,0.00,,,0.00,WUHU216HW,2013-06-18 09:11:00,
2013-06-18 03:12:00,54.4,48.0,29.96,NW,315,1.6,3.2,79,0.00,,,0.00,WUHU216HW,2013-06-18 09:12:00,
2013-06-18 03:16:00,54.4,48.0,29.96,WNW,293,1.3,3.2,79,0.00,,,0.00,WUHU216HW,2013-06-18 09:16:00,
2013-06-18 03:17:00,54.4,48.0,29.96,WNW,293,1.1,2.9,79,0.00,,,0.00,WUHU216HW,2013-06-18 09:17:00,
2013-06-18 03:18:00,54.5,48.2,29.96,NNW,338,1.1,2.9,79,0.00,,,0.00,WUHU216HW,2013-06-18 09:18:00,
2013-06-18 03:22:00,54.5,47.8,29.96,North,0,0.0,2.1,78,0.00,,,0.00,WUHU216HW,2013-06-18 09:22:00,
2013-06-18 03:23:00,54.5,47.8,29.96,North,0,0.0,2.1,78,0.00,,,0.00,WUHU216HW,2013-06-18 09:23:00,
2013-06-18 03:26:00,54.7,48.3,29.96,NE,45,0.0,2.1,79,0.00,,,0.00,WUHU216HW,2013-06-18 09:26:00,
2013-06-18 03:27:00,54.7,48.3,29.96,NE,45,0.0,2.1,79,0.00,,,0.00,WUHU216HW,2013-06-18 09:27:00,
2013-06-18 03:28:00,54.5,48.2,29.96,NE,45,0.0,2.1,79,0.00,,,0.00,WUHU216HW,2013-06-18 09:28:00,
2013-06-18 03:29:00,54.5,48.2,29.96,ENE,68,0.7,2.1,79,0.00,,,0.00,WUHU216HW,2013-06-18 09:29:00,
2013-06-18 03:32:00,54.4,47.6,29.96,East,90,1.1,1.3,78,0.00,,,0.00,WUHU216HW,2013-06-18 09:32:00,
2013-06-18 03:34:00,54.4,47.6,29.96,ESE,113,1.1,1.5,78,0.00,,,0.00,WUHU216HW,2013-06-18 09:34:00,
2013-06-18 03:35:00,54.2,47.8,29.96,SE,135,1.3,2.1,79,0.00,,,0.00,WUHU216HW,2013-06-18 09:35:00,
2013-06-18 03:36:00,54.0,47.7,29.96,SE,135,1.6,2.1,79,0.00,,,0.00,WUHU216HW,2013-06-18 09:36:00,
2013-06-18 03:37:00,54.0,47.7,29.96,SE,135,1.6,2.1,79,0.00,,,0.00,WUHU216HW,2013-06-18 09:37:00,
2013-06-18 03:38:00,54.0,48.1,29.96,SSE,158,1.8,2.1,80,0.00,,,0.00,WUHU216HW,2013-06-18 09:38:00,
2013-06-18 03:40:00,54.0,48.1,29.96,SE,135,1.8,2.6,80,0.00,,,0.00,WUHU216HW,2013-06-18 09:40:00,
2013-06-18 03:42:00,54.0,48.1,29.96,SSE,158,1.1,2.6,80,0.00,,,0.00,WUHU216HW,2013-06-18 09:42:00,
2013-06-18 03:43:00,54.0,48.1,29.96,SE,135,1.8,2.6,80,0.00,,,0.00,WUHU216HW,2013-06-18 09:43:00,
2013-06-18 03:44:00,54.0,48.3,29.96,SE,135,2.5,2.9,81,0.00,,,0.00,WUHU216HW,2013-06-18 09:44:00,
2013-06-18 03:46:00,54.0,48.6,29.96,SSE,158,2.0,2.9,82,0.00,,,0.00,WUHU216HW,2013-06-18 09:46:00,
2013-06-18 03:47:00,54.0,48.3,29.96,SSE,158,1.6,2.9,81,0.00,,,0.00,WUHU216HW,2013-06-18 09:47:00,
2013-06-18 03:50:00,54.0,48.3,29.96,SSE,158,1.3,2.9,81,0.00,,,0.00,WUHU216HW,2013-06-18 09:50:00,
2013-06-18 03:51:00,54.0,48.3,29.96,SSE,158,1.6,2.9,81,0.00,,,0.00,WUHU216HW,2013-06-18 09:51:00,
2013-06-18 03:52:00,54.0,48.1,29.95,SSE,158,0.9,2.9,80,0.00,,,0.00,WUHU216HW,2013-06-18 09:52:00,
2013-06-18 03:55:00,54.0,48.3,29.95,South,180,0.4,2.6,81,0.00,,,0.00,WUHU216HW,2013-06-18 09:55:00,
2013-06-18 03:56:00,53.8,47.9,29.95,South,180,0.4,2.1,80,0.00,,,0.00,WUHU216HW,2013-06-18 09:56:00,
2013-06-18 03:58:00,53.8,47.9,29.95,South,180,0.0,2.1,80,0.00,,,0.00,WUHU216HW,2013-06-18 09:58:00,
2013-06-18 03:59:00,53.8,47.9,29.95,South,180,0.0,2.1,80,0.00,,,0.00,WUHU216HW,2013-06-18 09:59:00,
2013-06-18 04:00:00,53.8,47.9,29.95,South,180,0.0,2.1,80,0.00,,,0.00,WUHU216HW,2013-06-18 10:00:00,
2013-06-18 04:02:00,53.8,47.9,29.95,South,180,0.0,2.1,80,0.00,,,0.00,WUHU216HW,2013-06-18 10:02:00,
2013-06-18 04:03:00,53.8,47.9,29.95,South,180,0.0,2.1,80,0.00,,,0.00,WUHU216HW,2013-06-18 10:03:00,
2013-06-18 04:05:00,53.8,47.5,29.96,South,180,0.0,1.5,79,0.00,,,0.00,WUHU216HW,2013-06-18 10:05:00,
2013-06-18 04:08:00,53.8,47.5,29.95,South,180,0.0,0.0,79,0.00,,,0.00,WUHU216HW,2013-06-18 10:08:00,
2013-06-18 04:09:00,53.6,47.3,29.95,South,180,0.0,0.0,79,0.00,,,0.00,WUHU216HW,2013-06-18 10:09:00,
2013-06-18 04:11:00,53.6,47.3,29.95,South,180,0.0,0.0,79,0.00,,,0.00,WUHU216HW,2013-06-18 10:11:00,
2013-06-18 04:13:00,53.6,47.3,29.95,South,180,1.8,2.1,79,0.00,,,0.00,WUHU216HW,2013-06-18 10:13:00,
2013-06-18 04:14:00,53.6,47.7,29.95,SSE,158,2.0,2.6,80,0.00,,,0.00,WUHU216HW,2013-06-18 10:14:00,
2013-06-18 04:16:00,53.5,47.5,29.95,SE,135,0.9,2.6,80,0.00,,,0.00,WUHU216HW,2013-06-18 10:16:00,
2013-06-18 04:18:00,53.5,47.8,29.95,SSE,158,1.8,2.6,81,0.00,,,0.00,WUHU216HW,2013-06-18 10:18:00,
2013-06-18 04:19:00,53.5,48.2,29.95,SSE,158,2.5,3.6,82,0.00,,,0.00,WUHU216HW,2013-06-18 10:19:00,
2013-06-18 04:22:00,53.3,48.0,29.95,SSE,158,2.7,3.6,82,0.00,,,0.00,WUHU216HW,2013-06-18 10:22:00,
2013-06-18 04:24:00,53.3,48.0,29.95,SSE,158,1.8,3.6,82,0.00,,,0.00,WUHU216HW,2013-06-18 10:24:00,
2013-06-18 04:25:00,53.3,48.0,29.95,SE,135,1.1,3.6,82,0.00,,,0.00,WUHU216HW,2013-06-18 10:25:00,
2013-06-18 04:27:00,53.3,48.0,29.95,SE,135,2.0,3.6,82,0.00,,,0.00,WUHU216HW,2013-06-18 10:27:00,
2013-06-18 04:29:00,53.3,48.0,29.95,SE,135,1.8,3.6,82,0.00,,,0.00,WUHU216HW,2013-06-18 10:29:00,
2013-06-18 04:30:00,53.3,48.2,29.95,SSE,158,1.8,3.2,83,0.00,,,0.00,WUHU216HW,2013-06-18 10:30:00,
2013-06-18 04:32:00,53.3,48.0,29.95,SSE,158,1.6,3.2,82,0.00,,,0.00,WUHU216HW,2013-06-18 10:32:00,
2013-06-18 04:34:00,53.3,48.0,29.95,SE,135,1.8,3.2,82,0.00,,,0.00,WUHU216HW,2013-06-18 10:34:00,
2013-06-18 04:35:00,53.3,48.0,29.95,ESE,113,1.8,3.2,82,0.00,,,0.00,WUHU216HW,2013-06-18 10:35:00,
2013-06-18 04:37:00,53.3,48.0,29.95,SSE,158,0.7,3.2,82,0.00,,,0.00,WUHU216HW,2013-06-18 10:37:00,
2013-06-18 04:39:00,53.3,48.0,29.95,SSE,158,1.1,3.2,82,0.00,,,0.00,WUHU216HW,2013-06-18 10:39:00,
2013-06-18 04:40:00,53.3,48.0,29.95,SE,135,1.1,3.2,82,0.00,,,0.00,WUHU216HW,2013-06-18 10:40:00,
2013-06-18 04:42:00,53.3,48.0,29.95,SE,135,0.9,2.6,82,0.00,,,0.00,WUHU216HW,2013-06-18 10:42:00,
2013-06-18 04:44:00,53.3,48.0,29.95,SSE,158,0.9,2.1,82,0.00,,,0.00,WUHU216HW,2013-06-18 10:44:00,
2013-06-18 04:47:00,53.1,47.4,29.95,SE,135,0.0,1.5,81,0.00,,,0.00,WUHU216HW,2013-06-18 10:47:00,
2013-06-18 04:50:00,53.1,48.1,29.95,ESE,113,2.7,3.4,83,0.00,,,0.00,WUHU216HW,2013-06-18 10:50:00,
2013-06-18 04:52:00,52.9,47.9,29.95,SSE,158,2.2,3.6,83,0.00,,,0.00,WUHU216HW,2013-06-18 10:52:00,
2013-06-18 04:54:00,52.9,47.9,29.95,SSE,158,1.8,3.6,83,0.00,,,0.00,WUHU216HW,2013-06-18 10:54:00,
2013-06-18 04:55:00,53.1,48.1,29.95,SE,135,1.8,3.6,83,0.00,,,0.00,WUHU216HW,2013-06-18 10:55:00,
2013-06-18 04:57:00,53.1,48.1,29.95,SE,135,1.8,3.6,83,0.00,,,0.00,WUHU216HW,2013-06-18 10:57:00,
2013-06-18 04:58:00,53.1,48.1,29.95,ESE,113,1.1,3.6,83,0.00,,,0.00,WUHU216HW,2013-06-18 10:58:00,
2013-06-18 05:00:00,53.1,48.1,29.95,SE,135,0.7,3.6,83,0.00,,,0.00,WUHU216HW,2013-06-18 11:00:00,
2013-06-18 05:01:00,53.1,48.1,29.95,ESE,113,1.3,2.9,83,0.00,,,0.00,WUHU216HW,2013-06-18 11:01:00,
2013-06-18 05:02:00,53.1,48.1,29.95,ESE,113,1.3,2.9,83,0.00,,,0.00,WUHU216HW,2013-06-18 11:02:00,
2013-06-18 05:03:00,52.9,47.6,29.95,ESE,113,1.3,2.9,82,0.00,,,0.00,WUHU216HW,2013-06-18 11:03:00,
2013-06-18 05:04:00,52.9,47.6,29.95,SE,135,0.9,2.3,82,0.00,,,0.00,WUHU216HW,2013-06-18 11:04:00,
2013-06-18 05:06:00,52.9,47.6,29.95,SE,135,1.1,2.3,82,0.00,,,0.00,WUHU216HW,2013-06-18 11:06:00,
2013-06-18 05:07:00,52.9,47.6,29.95,ESE,113,1.8,2.3,82,0.00,,,0.00,WUHU216HW,2013-06-18 11:07:00,
2013-06-18 05:09:00,52.9,47.9,29.95,SE,135,1.8,2.3,83,0.00,,,0.00,WUHU216HW,2013-06-18 11:09:00,
2013-06-18 05:10:00,52.9,47.6,29.95,SE,135,0.4,2.3,82,0.00,,,0.00,WUHU216HW,2013-06-18 11:10:00,
2013-06-18 05:12:00,52.9,47.6,29.95,East,90,1.3,2.3,82,0.00,,,0.00,WUHU216HW,2013-06-18 11:12:00,
2013-06-18 05:13:00,52.7,47.4,29.95,East,90,2.5,2.9,82,0.00,,,0.00,WUHU216HW,2013-06-18 11:13:00,
2013-06-18 05:15:00,52.7,47.4,29.95,ENE,68,0.7,2.9,82,0.00,,,0.00,WUHU216HW,2013-06-18 11:15:00,
2013-06-18 05:16:00,52.7,47.4,29.95,ENE,68,0.7,2.9,82,0.00,,,0.00,WUHU216HW,2013-06-18 11:16:00,
2013-06-18 05:18:00,52.7,47.1,29.95,East,90,2.0,2.9,81,0.00,,,0.00,WUHU216HW,2013-06-18 11:18:00,
2013-06-18 05:20:00,52.6,46.9,29.95,East,90,1.1,2.9,81,0.00,,,0.00,WUHU216HW,2013-06-18 11:20:00,
2013-06-18 05:21:00,52.6,47.3,29.95,ESE,113,1.1,2.9,82,0.00,,,0.00,WUHU216HW,2013-06-18 11:21:00,
2013-06-18 05:22:00,52.6,47.3,29.95,ESE,113,1.8,2.9,82,0.00,,,0.00,WUHU216HW,2013-06-18 11:22:00,
2013-06-18 05:24:00,52.2,46.9,29.95,ESE,113,1.8,3.2,82,0.00,,,0.00,WUHU216HW,2013-06-18 11:24:00,
2013-06-18 05:26:00,52.2,46.9,29.95,East,90,1.3,3.2,82,0.00,,,0.00,WUHU216HW,2013-06-18 11:26:00,
2013-06-18 05:27:00,52.2,46.9,29.95,East,90,1.3,3.2,82,0.00,,,0.00,WUHU216HW,2013-06-18 11:27:00,
2013-06-18 05:29:00,52.2,46.9,29.95,ESE,113,0.0,3.2,82,0.00,,,0.00,WUHU216HW,2013-06-18 11:29:00,
2013-06-18 05:30:00,52.0,46.7,29.95,ESE,113,0.7,3.2,82,0.00,,,0.00,WUHU216HW,2013-06-18 11:30:00,
2013-06-18 05:32:00,52.2,46.9,29.95,ESE,113,0.4,3.2,82,0.00,,,0.00,WUHU216HW,2013-06-18 11:32:00,
2013-06-18 05:33:00,52.0,46.7,29.95,ESE,113,1.8,3.2,82,0.00,,,0.00,WUHU216HW,2013-06-18 11:33:00,
2013-06-18 05:34:00,52.0,46.7,29.95,ESE,113,1.6,2.1,82,0.00,,,0.00,WUHU216HW,2013-06-18 11:34:00,
2013-06-18 05:36:00,52.0,46.7,29.95,ESE,113,1.1,2.1,82,0.00,,,0.00,WUHU216HW,2013-06-18 11:36:00,
2013-06-18 05:37:00,52.0,46.7,29.96,ESE,113,2.0,2.3,82,0.00,,,0.00,WUHU216HW,2013-06-18 11:37:00,
2013-06-18 05:38:00,52.0,46.7,29.95,SE,135,0.2,2.3,82,0.00,,,0.00,WUHU216HW,2013-06-18 11:38:00,
2013-06-18 05:40:00,52.0,46.7,29.95,SE,135,0.0,2.3,82,0.00,,,0.00,WUHU216HW,2013-06-18 11:40:00,
2013-06-18 05:41:00,52.0,46.7,29.96,SE,135,0.0,2.3,82,0.00,,,0.00,WUHU216HW,2013-06-18 11:41:00,
2013-06-18 05:42:00,52.0,46.7,29.96,SE,135,0.0,2.3,82,0.00,,,0.00,WUHU216HW,2013-06-18 11:42:00,
2013-06-18 05:43:00,52.0,46.7,29.96,West,270,0.7,2.3,82,0.00,,,0.00,WUHU216HW,2013-06-18 11:43:00,
2013-06-18 05:45:00,51.8,46.5,29.96,SSE,158,0.4,2.3,82,0.00,,,0.00,WUHU216HW,2013-06-18 11:45:00,
2013-06-18 05:47:00,52.0,47.0,29.95,ESE,113,2.0,2.3,83,0.00,,,0.00,WUHU216HW,2013-06-18 11:47:00,
2013-06-18 05:51:00,52.0,47.0,29.95,East,90,2.5,3.2,83,0.00,,,0.00,WUHU216HW,2013-06-18 11:51:00,
2013-06-18 05:52:00,52.0,47.0,29.95,East,90,2.5,3.2,83,0.00,,,0.00,WUHU216HW,2013-06-18 11:52:00,
2013-06-18 05:55:00,52.0,46.7,29.95,East,90,0.0,3.2,82,0.00,,,0.00,WUHU216HW,2013-06-18 11:55:00,
2013-06-18 05:56:00,51.8,46.5,29.95,East,90,0.0,3.2,82,0.00,,,0.00,WUHU216HW,2013-06-18 11:56:00,
2013-06-18 05:57:00,51.8,46.5,29.95,East,90,0.0,3.2,82,0.00,,,0.00,WUHU216HW,2013-06-18 11:57:00,
2013-06-18 05:59:00,51.8,46.5,29.95,East,90,0.0,3.2,82,0.00,,,0.00,WUHU216HW,2013-06-18 11:59:00,
2013-06-18 06:00:00,51.8,46.5,29.95,East,90,0.0,3.2,82,0.00,,,0.00,WUHU216HW,2013-06-18 12:00:00,
2013-06-18 06:02:00,51.8,46.5,29.95,East,90,1.8,2.9,82,0.00,,,0.00,WUHU216HW,2013-06-18 12:02:00,
2013-06-18 06:03:00,51.8,46.5,29.95,East,90,2.5,3.4,82,0.00,,,0.00,WUHU216HW,2013-06-18 12:03:00,
2013-06-18 06:06:00,51.8,46.5,29.95,East,90,1.8,3.4,82,0.00,,,0.00,WUHU216HW,2013-06-18 12:06:00,
2013-06-18 06:07:00,51.8,46.5,29.95,SE,135,1.3,3.4,82,0.00,,,0.00,WUHU216HW,2013-06-18 12:07:00,
2013-06-18 06:08:00,51.8,46.5,29.95,SE,135,1.8,3.4,82,0.00,,,0.00,WUHU216HW,2013-06-18 12:08:00,
2013-06-18 06:09:00,51.8,46.8,29.95,SE,135,2.2,3.4,83,0.00,,,0.00,WUHU216HW,2013-06-18 12:09:00,
2013-06-18 06:12:00,51.7,46.6,29.95,SE,135,0.9,3.4,83,0.00,,,0.00,WUHU216HW,2013-06-18 12:12:00,
2013-06-18 06:13:00,51.7,46.6,29.95,SE,135,0.9,3.4,83,0.00,,,0.00,WUHU216HW,2013-06-18 12:13:00,
2013-06-18 06:15:00,51.7,46.4,29.95,SSW,203,2.5,3.4,82,0.00,,,0.00,WUHU216HW,2013-06-18 12:15:00,
2013-06-18 06:16:00,51.5,46.4,29.95,SW,225,4.0,4.7,83,0.00,,,0.00,WUHU216HW,2013-06-18 12:16:00,
2013-06-18 06:18:00,51.7,46.6,29.95,SW,225,2.7,4.7,83,0.00,,,0.00,WUHU216HW,2013-06-18 12:18:00,
2013-06-18 06:19:00,51.5,46.4,29.95,SSW,203,2.5,4.7,83,0.00,,,0.00,WUHU216HW,2013-06-18 12:19:00,
2013-06-18 06:20:00,51.5,46.4,29.95,SSW,203,1.8,4.7,83,0.00,,,0.00,WUHU216HW,2013-06-18 12:20:00,
2013-06-18 06:21:00,51.5,46.4,29.95,SW,225,2.0,4.7,83,0.00,,,0.00,WUHU216HW,2013-06-18 12:21:00,
2013-06-18 06:23:00,51.5,46.4,29.95,SW,225,3.1,4.7,83,0.00,,,0.00,WUHU216HW,2013-06-18 12:23:00,
2013-06-18 06:24:00,51.5,46.4,29.95,SW,225,2.2,4.7,83,0.00,,,0.00,WUHU216HW,2013-06-18 12:24:00,
2013-06-18 06:27:00,51.7,46.6,29.95,WSW,248,1.8,4.0,83,0.00,,,0.00,WUHU216HW,2013-06-18 12:27:00,
2013-06-18 06:28:00,51.7,46.6,29.95,WSW,248,1.3,4.0,83,0.00,,,0.00,WUHU216HW,2013-06-18 12:28:00,
2013-06-18 06:29:00,51.7,46.6,29.95,WSW,248,1.8,3.6,83,0.00,,,0.00,WUHU216HW,2013-06-18 12:29:00,
2013-06-18 06:32:00,51.7,47.0,29.95,WSW,248,2.5,4.0,84,0.00,,,0.00,WUHU216HW,2013-06-18 12:32:00,
2013-06-18 06:33:00,51.5,46.8,29.95,West,270,3.4,4.0,84,0.00,,,0.00,WUHU216HW,2013-06-18 12:33:00,
2013-06-18 06:34:00,51.5,46.8,29.95,West,270,2.5,4.0,84,0.00,,,0.00,WUHU216HW,2013-06-18 12:34:00,
2013-06-18 06:38:00,51.5,47.1,29.95,West,270,2.5,4.0,85,0.00,,,0.00,WUHU216HW,2013-06-18 12:38:00,
2013-06-18 06:39:00,51.5,47.1,29.95,WSW,248,2.5,4.0,85,0.00,,,0.00,WUHU216HW,2013-06-18 12:39:00,
2013-06-18 06:41:00,51.5,47.1,29.95,WSW,248,2.0,4.0,85,0.00,,,0.00,WUHU216HW,2013-06-18 12:41:00,
2013-06-18 06:42:00,51.5,47.1,29.95,WSW,248,0.9,4.0,85,0.00,,,0.00,WUHU216HW,2013-06-18 12:42:00,
2013-06-18 06:43:00,51.5,46.8,29.95,WNW,293,0.7,4.0,84,0.00,,,0.00,WUHU216HW,2013-06-18 12:43:00,
2013-06-18 06:48:00,51.5,46.8,29.95,NW,315,0.0,2.9,84,0.00,,,0.00,WUHU216HW,2013-06-18 12:48:00,
2013-06-18 06:49:00,51.5,46.8,29.95,NW,315,0.2,2.9,84,0.00,,,0.00,WUHU216HW,2013-06-18 12:49:00,
2013-06-18 06:52:00,51.7,47.0,29.95,NNW,338,0.7,2.3,84,0.00,,,0.00,WUHU216HW,2013-06-18 12:52:00,
2013-06-18 06:54:00,51.7,47.0,29.95,NNE,23,0.4,2.3,84,0.00,,,0.00,WUHU216HW,2013-06-18 12:54:00,
2013-06-18 06:55:00,51.7,47.0,29.95,NNE,23,0.0,2.3,84,0.00,,,0.00,WUHU216HW,2013-06-18 12:55:00,
2013-06-18 06:57:00,51.7,47.0,29.95,NNE,23,1.3,2.3,84,0.00,,,0.00,WUHU216HW,2013-06-18 12:57:00,
2013-06-18 06:58:00,51.7,46.6,29.95,NE,45,0.9,2.3,83,0.00,,,0.00,WUHU216HW,2013-06-18 12:58:00,
2013-06-18 06:59:00,51.7,46.6,29.95,NE,45,0.9,2.3,83,0.00,,,0.00,WUHU216HW,2013-06-18 12:59:00,
2013-06-18 07:00:00,51.7,46.6,29.95,NE,45,0.0,2.3,83,0.00,,,0.00,WUHU216HW,2013-06-18 13:00:00,
2013-06-18 07:01:00,51.7,46.6,29.95,North,0,0.0,2.3,83,0.00,,,0.00,WUHU216HW,2013-06-18 13:01:00,
2013-06-18 07:03:00,51.7,46.6,29.95,WNW,293,1.8,2.1,83,0.00,,,0.00,WUHU216HW,2013-06-18 13:03:00,
2013-06-18 07:04:00,51.7,47.0,29.95,WNW,293,1.6,2.1,84,0.00,,,0.00,WUHU216HW,2013-06-18 13:04:00,
2013-06-18 07:06:00,51.8,47.2,29.95,West,270,1.3,2.1,84,0.00,,,0.00,WUHU216HW,2013-06-18 13:06:00,
2013-06-18 07:08:00,51.8,47.2,29.95,NW,315,0.0,2.1,84,0.00,,,0.00,WUHU216HW,2013-06-18 13:08:00,
2013-06-18 07:09:00,51.8,47.2,29.95,NW,315,0.0,2.1,84,0.00,,,0.00,WUHU216HW,2013-06-18 13:09:00,
2013-06-18 07:10:00,51.8,47.2,29.95,NW,315,0.0,2.1,84,0.00,,,0.00,WUHU216HW,2013-06-18 13:10:00,
2013-06-18 07:12:00,52.0,47.4,29.95,NW,315,0.0,2.1,84,0.00,,,0.00,WUHU216HW,2013-06-18 13:12:00,
2013-06-18 07:13:00,52.0,47.4,29.95,NW,315,0.0,2.1,84,0.00,,,0.00,WUHU216HW,2013-06-18 13:13:00,
2013-06-18 07:14:00,52.0,47.4,29.95,NW,315,0.0,2.1,84,0.00,,,0.00,WUHU216HW,2013-06-18 13:14:00,
2013-06-18 07:15:00,52.0,47.4,29.95,NW,315,0.0,2.1,84,0.00,,,0.00,WUHU216HW,2013-06-18 13:15:00,
2013-06-18 07:18:00,52.2,47.5,29.95,NE,45,0.2,0.2,84,0.00,,,0.00,WUHU216HW,2013-06-18 13:18:00,
2013-06-18 07:19:00,52.2,47.5,29.95,NE,45,0.0,0.5,84,0.00,,,0.00,WUHU216HW,2013-06-18 13:19:00,
2013-06-18 07:20:00,52.2,47.5,29.95,NE,45,0.0,0.5,84,0.00,,,0.00,WUHU216HW,2013-06-18 13:20:00,
2013-06-18 07:23:00,52.6,47.9,29.95,ESE,113,0.0,1.3,84,0.00,,,0.00,WUHU216HW,2013-06-18 13:23:00,
2013-06-18 07:24:00,52.6,47.9,29.95,SE,135,0.0,1.3,84,0.00,,,0.00,WUHU216HW,2013-06-18 13:24:00,
2013-06-18 07:26:00,52.7,48.1,29.95,SE,135,0.0,1.3,84,0.00,,,0.00,WUHU216HW,2013-06-18 13:26:00,
2013-06-18 07:28:00,52.7,48.1,29.95,SE,135,0.0,1.3,84,0.00,,,0.00,WUHU216HW,2013-06-18 13:28:00,
2013-06-18 07:29:00,52.9,48.3,29.95,SSW,203,0.0,1.3,84,0.00,,,0.00,WUHU216HW,2013-06-18 13:29:00,
2013-06-18 07:30:00,52.9,48.3,29.95,SSW,203,0.0,1.3,84,0.00,,,0.00,WUHU216HW,2013-06-18 13:30:00,
2013-06-18 07:31:00,52.9,48.3,29.95,SSW,203,0.0,1.3,84,0.00,,,0.00,WUHU216HW,2013-06-18 13:31:00,
2013-06-18 07:32:00,52.9,48.3,29.95,SSW,203,0.0,0.5,84,0.00,,,0.00,WUHU216HW,2013-06-18 13:32:00,
2013-06-18 07:33:00,52.9,48.3,29.95,SSW,203,0.0,0.0,84,0.00,,,0.00,WUHU216HW,2013-06-18 13:33:00,
2013-06-18 07:35:00,52.9,47.9,29.95,SSW,203,0.0,0.0,83,0.00,,,0.00,WUHU216HW,2013-06-18 13:35:00,
2013-06-18 07:39:00,53.1,48.4,29.95,WNW,293,0.7,2.3,84,0.00,,,0.00,WUHU216HW,2013-06-18 13:39:00,
2013-06-18 07:40:00,53.1,48.4,29.95,WNW,293,0.7,2.3,84,0.00,,,0.00,WUHU216HW,2013-06-18 13:40:00,
2013-06-18 07:42:00,53.5,48.8,29.95,NNW,338,0.2,2.3,84,0.00,,,0.00,WUHU216HW,2013-06-18 13:42:00,
2013-06-18 07:43:00,53.5,48.8,29.95,WNW,293,1.3,2.3,84,0.00,,,0.00,WUHU216HW,2013-06-18 13:43:00,
2013-06-18 07:44:00,53.6,49.0,29.95,North,0,1.1,2.3,84,0.00,,,0.00,WUHU216HW,2013-06-18 13:44:00,
2013-06-18 07:45:00,53.6,49.0,29.95,North,0,1.1,2.3,84,0.00,,,0.00,WUHU216HW,2013-06-18 13:45:00,
2013-06-18 07:47:00,53.6,48.6,29.95,NNE,23,0.9,2.3,83,0.00,,,0.00,WUHU216HW,2013-06-18 13:47:00,
2013-06-18 07:50:00,53.8,48.8,29.95,North,0,1.1,2.1,83,0.00,,,0.00,WUHU216HW,2013-06-18 13:50:00,
2013-06-18 07:54:00,54.2,49.2,29.95,NE,45,0.0,1.9,83,0.00,,,0.00,WUHU216HW,2013-06-18 13:54:00,
2013-06-18 07:55:00,54.2,49.2,29.95,NNE,23,1.1,1.9,83,0.00,,,0.00,WUHU216HW,2013-06-18 13:55:00,
2013-06-18 07:59:00,54.4,49.3,29.95,ENE,68,1.6,2.1,83,0.00,,,0.00,WUHU216HW,2013-06-18 13:59:00,
2013-06-18 08:00:00,54.4,49.3,29.95,North,0,1.1,2.1,83,0.00,,,0.00,WUHU216HW,2013-06-18 14:00:00,
2013-06-18 08:01:00,54.4,49.3,29.95,North,0,1.1,2.1,83,0.00,,,0.00,WUHU216HW,2013-06-18 14:01:00,
2013-06-18 08:02:00,54.5,49.4,29.95,North,0,1.1,2.1,83,0.00,,,0.00,WUHU216HW,2013-06-18 14:02:00,
2013-06-18 08:03:00,54.7,49.6,29.95,North,0,0.0,2.1,83,0.00,,,0.00,WUHU216HW,2013-06-18 14:03:00,
2013-06-18 08:05:00,54.7,49.3,29.95,ENE,68,1.3,2.1,82,0.00,,,0.00,WUHU216HW,2013-06-18 14:05:00,
2013-06-18 08:06:00,54.7,49.3,29.94,ENE,68,1.6,2.1,82,0.00,,,0.00,WUHU216HW,2013-06-18 14:06:00,
2013-06-18 08:08:00,54.9,49.5,29.95,NNE,23,2.2,2.9,82,0.00,,,0.00,WUHU216HW,2013-06-18 14:08:00,
2013-06-18 08:09:00,55.1,49.7,29.94,NNE,23,1.8,2.9,82,0.00,,,0.00,WUHU216HW,2013-06-18 14:09:00,
2013-06-18 08:10:00,55.1,50.0,29.94,NE,45,2.5,3.2,83,0.00,,,0.00,WUHU216HW,2013-06-18 14:10:00,
2013-06-18 08:12:00,55.4,50.0,29.95,NNE,23,1.1,3.2,82,0.00,,,0.00,WUHU216HW,2013-06-18 14:12:00,
2013-06-18 08:14:00,55.6,50.1,29.94,North,0,1.1,3.2,82,0.00,,,0.00,WUHU216HW,2013-06-18 14:14:00,
2013-06-18 08:15:00,55.6,50.1,29.94,NE,45,2.0,3.2,82,0.00,,,0.00,WUHU216HW,2013-06-18 14:15:00,
2013-06-18 08:16:00,55.8,50.3,29.94,East,90,2.0,3.2,82,0.00,,,0.00,WUHU216HW,2013-06-18 14:16:00,
2013-06-18 08:20:00,56.2,50.7,29.94,North,0,0.9,2.9,82,0.00,,,0.00,WUHU216HW,2013-06-18 14:20:00,
2013-06-18 08:21:00,56.2,50.7,29.94,NNW,338,0.4,2.9,82,0.00,,,0.00,WUHU216HW,2013-06-18 14:21:00,
2013-06-18 08:23:00,56.3,50.9,29.94,ENE,68,2.2,2.9,82,0.00,,,0.00,WUHU216HW,2013-06-18 14:23:00,
2013-06-18 08:25:00,56.3,50.9,29.94,SE,135,1.1,2.9,82,0.00,,,0.00,WUHU216HW,2013-06-18 14:25:00,
2013-06-18 08:26:00,56.3,50.9,29.94,SE,135,1.1,2.9,82,0.00,,,0.00,WUHU216HW,2013-06-18 14:26:00,
2013-06-18 08:30:00,56.9,51.4,29.94,NE,45,1.3,2.9,82,0.00,,,0.00,WUHU216HW,2013-06-18 14:30:00,
2013-06-18 08:31:00,56.9,51.4,29.94,NE,45,1.3,2.9,82,0.00,,,0.00,WUHU216HW,2013-06-18 14:31:00,
2013-06-18 08:33:00,57.1,51.6,29.94,WNW,293,0.7,2.9,82,0.00,,,0.00,WUHU216HW,2013-06-18 14:33:00,
2013-06-18 08:34:00,57.1,51.6,29.94,NW,315,0.4,2.1,82,0.00,,,0.00,WUHU216HW,2013-06-18 14:34:00,
2013-06-18 08:36:00,57.2,51.5,29.94,NE,45,0.4,2.1,81,0.00,,,0.00,WUHU216HW,2013-06-18 14:36:00,
2013-06-18 08:37:00,57.2,51.8,29.94,NNE,23,1.8,2.1,82,0.00,,,0.00,WUHU216HW,2013-06-18 14:37:00,
2013-06-18 08:39:00,57.4,51.7,29.93,North,0,1.8,2.1,81,0.00,,,0.00,WUHU216HW,2013-06-18 14:39:00,
2013-06-18 08:40:00,57.6,51.9,29.93,NNE,23,0.9,2.1,81,0.00,,,0.00,WUHU216HW,2013-06-18 14:40:00,
2013-06-18 08:41:00,57.6,51.9,29.93,NNE,23,0.9,2.1,81,0.00,,,0.00,WUHU216HW,2013-06-18 14:41:00,
2013-06-18 08:43:00,58.0,52.2,29.93,North,0,2.2,2.9,81,0.00,,,0.00,WUHU216HW,2013-06-18 14:43:00,
2013-06-18 08:45:00,58.0,52.2,29.93,NNW,338,1.6,3.4,81,0.00,,,0.00,WUHU216HW,2013-06-18 14:45:00,
2013-06-18 08:46:00,58.0,52.2,29.93,North,0,1.8,3.4,81,0.00,,,0.00,WUHU216HW,2013-06-18 14:46:00,
2013-06-18 08:48:00,58.3,52.6,29.93,North,0,1.3,3.4,81,0.00,,,0.00,WUHU216HW,2013-06-18 14:48:00,
2013-06-18 08:50:00,58.3,52.6,29.93,NNW,338,0.9,3.4,81,0.00,,,0.00,WUHU216HW,2013-06-18 14:50:00,
2013-06-18 08:51:00,58.3,52.6,29.93,North,0,0.7,3.4,81,0.00,,,0.00,WUHU216HW,2013-06-18 14:51:00,
2013-06-18 08:54:00,58.7,52.9,29.93,ESE,113,1.6,3.2,81,0.00,,,0.00,WUHU216HW,2013-06-18 14:54:00,
2013-06-18 08:56:00,59.0,53.6,29.93,East,90,2.7,3.6,82,0.00,,,0.00,WUHU216HW,2013-06-18 14:56:00,
2013-06-18 08:58:00,59.2,53.7,29.93,NE,45,0.4,3.6,82,0.00,,,0.00,WUHU216HW,2013-06-18 14:58:00,
2013-06-18 08:59:00,59.4,53.7,29.93,East,90,0.4,3.6,81,0.00,,,0.00,WUHU216HW,2013-06-18 14:59:00,
2013-06-18 09:01:00,59.8,54.6,29.93,ESE,113,3.1,3.6,83,0.00,,,0.00,WUHU216HW,2013-06-18 15:01:00,
2013-06-18 09:02:00,59.9,54.8,29.93,SSE,158,1.3,3.6,83,0.00,,,0.00,WUHU216HW,2013-06-18 15:02:00,
2013-06-18 09:04:00,60.5,55.4,29.93,ESE,113,0.9,3.6,83,0.00,,,0.00,WUHU216HW,2013-06-18 15:04:00,
2013-06-18 09:05:00,60.7,55.2,29.93,South,180,0.7,3.6,82,0.00,,,0.00,WUHU216HW,2013-06-18 15:05:00,
2013-06-18 09:06:00,60.8,55.4,29.92,South,180,4.5,5.3,82,0.00,,,0.00,WUHU216HW,2013-06-18 15:06:00,
2013-06-18 09:07:00,60.8,55.1,29.93,South,180,2.5,5.3,81,0.00,,,0.00,WUHU216HW,2013-06-18 15:07:00,
2013-06-18 09:08:00,61.2,55.4,29.92,SSW,203,3.1,5.3,81,0.00,,,0.00,WUHU216HW,2013-06-18 15:08:00,
2013-06-18 09:10:00,61.4,55.5,29.92,SSE,158,2.5,5.3,81,0.00,,,0.00,WUHU216HW,2013-06-18 15:10:00,
2013-06-18 09:11:00,61.6,55.4,29.92,SE,135,0.4,5.3,80,0.00,,,0.00,WUHU216HW,2013-06-18 15:11:00,
2013-06-18 09:12:00,61.6,55.4,29.92,SE,135,0.4,5.3,80,0.00,,,0.00,WUHU216HW,2013-06-18 15:12:00,
2013-06-18 09:14:00,61.9,55.4,29.92,SSW,203,2.0,5.3,79,0.00,,,0.00,WUHU216HW,2013-06-18 15:14:00,
2013-06-18 09:15:00,61.9,55.4,29.92,SSW,203,2.0,5.3,79,0.00,,,0.00,WUHU216HW,2013-06-18 15:15:00,
2013-06-18 09:17:00,62.3,55.6,29.92,SSW,203,1.6,3.6,79,0.00,,,0.00,WUHU216HW,2013-06-18 15:17:00,
2013-06-18 09:18:00,62.3,55.6,29.92,WSW,248,2.9,3.6,79,0.00,,,0.00,WUHU216HW,2013-06-18 15:18:00,
2013-06-18 09:21:00,62.6,55.6,29.92,SW,225,3.6,4.2,78,0.00,,,0.00,WUHU216HW,2013-06-18 15:21:00,
2013-06-18 09:22:00,62.6,55.6,29.92,SW,225,3.6,4.2,78,0.00,,,0.00,WUHU216HW,2013-06-18 15:22:00,
2013-06-18 09:24:00,62.8,55.4,29.92,SW,225,1.1,4.2,77,0.00,,,0.00,WUHU216HW,2013-06-18 15:24:00,
2013-06-18 09:27:00,63.0,55.6,29.92,SSW,203,2.2,4.2,77,0.00,,,0.00,WUHU216HW,2013-06-18 15:27:00,
2013-06-18 09:29:00,63.2,55.8,29.92,SW,225,2.5,4.2,77,0.00,,,0.00,WUHU216HW,2013-06-18 15:29:00,
2013-06-18 09:31:00,63.4,55.6,29.92,West,270,1.6,4.7,76,0.00,,,0.00,WUHU216HW,2013-06-18 15:31:00,
2013-06-18 09:32:00,63.4,55.6,29.92,West,270,1.6,4.7,76,0.00,,,0.00,WUHU216HW,2013-06-18 15:32:00,
2013-06-18 09:35:00,63.7,56.0,29.92,NNW,338,1.1,4.7,76,0.00,,,0.00,WUHU216HW,2013-06-18 15:35:00,
2013-06-18 09:37:00,63.7,56.0,29.91,SW,225,1.6,4.7,76,0.00,,,0.00,WUHU216HW,2013-06-18 15:37:00,
2013-06-18 09:38:00,63.9,56.2,29.91,West,270,1.1,4.7,76,0.00,,,0.00,WUHU216HW,2013-06-18 15:38:00,
2013-06-18 09:40:00,63.9,56.2,29.91,WSW,248,2.0,4.7,76,0.00,,,0.00,WUHU216HW,2013-06-18 15:40:00,
2013-06-18 09:41:00,64.1,56.3,29.91,WNW,293,0.9,4.7,76,0.00,,,0.00,WUHU216HW,2013-06-18 15:41:00,
2013-06-18 09:42:00,64.1,56.3,29.91,WNW,293,0.9,4.7,76,0.00,,,0.00,WUHU216HW,2013-06-18 15:42:00,
2013-06-18 09:44:00,64.3,56.2,29.91,NNW,338,0.4,2.3,75,0.00,,,0.00,WUHU216HW,2013-06-18 15:44:00,
2013-06-18 09:46:00,64.4,56.3,29.91,ESE,113,1.1,2.3,75,0.00,,,0.00,WUHU216HW,2013-06-18 15:46:00,
2013-06-18 09:47:00,64.4,56.3,29.91,ESE,113,1.1,2.3,75,0.00,,,0.00,WUHU216HW,2013-06-18 15:47:00,
2013-06-18 09:48:00,64.8,57.1,29.91,SSE,158,0.4,2.9,76,0.00,,,0.00,WUHU216HW,2013-06-18 15:48:00,
2013-06-18 09:49:00,64.8,57.1,29.91,South,180,1.1,2.9,76,0.00,,,0.00,WUHU216HW,2013-06-18 15:49:00,
2013-06-18 09:50:00,65.0,57.3,29.91,West,270,1.1,3.2,76,0.00,,,0.00,WUHU216HW,2013-06-18 15:50:00,
2013-06-18 09:52:00,65.2,57.1,29.91,WNW,293,1.8,3.2,75,0.00,,,0.00,WUHU216HW,2013-06-18 15:52:00,
2013-06-18 09:55:00,65.5,57.0,29.91,WNW,293,0.9,3.2,74,0.00,,,0.00,WUHU216HW,2013-06-18 15:55:00,
2013-06-18 09:56:00,65.7,57.5,29.91,ESE,113,1.1,3.2,75,0.00,,,0.00,WUHU216HW,2013-06-18 15:56:00,
2013-06-18 09:57:00,65.9,58.5,29.91,SE,135,2.0,3.4,77,0.00,,,0.00,WUHU216HW,2013-06-18 15:57:00,
2013-06-18 09:58:00,65.9,58.5,29.91,SE,135,2.0,3.4,77,0.00,,,0.00,WUHU216HW,2013-06-18 15:58:00,
2013-06-18 09:59:00,66.1,58.2,29.91,West,270,0.7,3.4,76,0.00,,,0.00,WUHU216HW,2013-06-18 15:59:00,
2013-06-18 10:02:00,66.6,58.8,29.90,ENE,68,2.0,3.4,76,0.00,,,0.00,WUHU216HW,2013-06-18 16:02:00,
2013-06-18 10:03:00,66.6,58.8,29.90,ESE,113,2.5,3.4,76,0.00,,,0.00,WUHU216HW,2013-06-18 16:03:00,
2013-06-18 10:06:00,67.0,58.4,29.90,NNW,338,0.9,4.2,74,0.00,,,0.00,WUHU216HW,2013-06-18 16:06:00,
2013-06-18 10:08:00,67.0,58.4,29.90,NNE,23,1.3,4.2,74,0.00,,,0.00,WUHU216HW,2013-06-18 16:08:00,
2013-06-18 10:09:00,67.1,58.2,29.90,NNW,338,1.1,4.2,73,0.00,,,0.00,WUHU216HW,2013-06-18 16:09:00,
2013-06-18 10:10:00,67.1,57.8,29.91,SE,135,1.1,4.2,72,0.00,,,0.00,WUHU216HW,2013-06-18 16:10:00,
2013-06-18 10:12:00,67.3,58.4,29.91,SSE,158,1.1,4.2,73,0.00,,,0.00,WUHU216HW,2013-06-18 16:12:00,
2013-06-18 10:13:00,67.3,58.4,29.91,SSE,158,1.1,4.2,73,0.00,,,0.00,WUHU216HW,2013-06-18 16:13:00,
2013-06-18 10:16:00,67.5,58.6,29.91,NNE,23,0.4,3.4,73,0.00,,,0.00,WUHU216HW,2013-06-18 16:16:00,
2013-06-18 10:18:00,67.7,58.3,29.90,NNE,23,1.6,3.4,72,0.00,,,0.00,WUHU216HW,2013-06-18 16:18:00,
2013-06-18 10:19:00,67.7,58.3,29.90,North,0,0.4,3.2,72,0.00,,,0.00,WUHU216HW,2013-06-18 16:19:00,
2013-06-18 10:22:00,67.7,58.0,29.90,WSW,248,1.3,2.6,71,0.00,,,0.00,WUHU216HW,2013-06-18 16:22:00,
2013-06-18 10:23:00,67.7,58.0,29.90,WSW,248,1.3,2.6,71,0.00,,,0.00,WUHU216HW,2013-06-18 16:23:00,
2013-06-18 10:25:00,67.9,58.1,29.90,West,270,1.6,2.6,71,0.00,,,0.00,WUHU216HW,2013-06-18 16:25:00,
2013-06-18 10:27:00,68.0,58.3,29.90,WSW,248,0.9,2.6,71,0.00,,,0.00,WUHU216HW,2013-06-18 16:27:00,
2013-06-18 10:28:00,68.0,58.3,29.90,WSW,248,0.9,2.6,71,0.00,,,0.00,WUHU216HW,2013-06-18 16:28:00,
2013-06-18 10:30:00,68.0,58.3,29.90,NNW,338,1.8,2.6,71,0.00,,,0.00,WUHU216HW,2013-06-18 16:30:00,
2013-06-18 10:32:00,68.0,58.3,29.90,NNW,338,0.0,2.3,71,0.00,,,0.00,WUHU216HW,2013-06-18 16:32:00,
2013-06-18 10:33:00,68.0,58.3,29.90,NNW,338,0.0,2.3,71,0.00,,,0.00,WUHU216HW,2013-06-18 16:33:00,
2013-06-18 10:34:00,68.2,58.5,29.90,NNW,338,1.3,2.1,71,0.00,,,0.00,WUHU216HW,2013-06-18 16:34:00,
2013-06-18 10:35:00,68.2,58.5,29.90,NW,315,3.4,4.0,71,0.00,,,0.00,WUHU216HW,2013-06-18 16:35:00,
2013-06-18 10:38:00,68.4,59.0,29.89,NNW,338,3.4,4.0,72,0.00,,,0.00,WUHU216HW,2013-06-18 16:38:00,
2013-06-18 10:40:00,68.6,59.2,29.89,NNW,338,1.6,4.7,72,0.00,,,0.00,WUHU216HW,2013-06-18 16:40:00,
2013-06-18 10:41:00,68.8,59.4,29.89,NNW,338,2.2,4.7,72,0.00,,,0.00,WUHU216HW,2013-06-18 16:41:00,
2013-06-18 10:42:00,68.9,59.5,29.89,NW,315,2.2,4.7,72,0.00,,,0.00,WUHU216HW,2013-06-18 16:42:00,
2013-06-18 10:43:00,68.9,59.1,29.89,North,0,1.1,4.7,71,0.00,,,0.00,WUHU216HW,2013-06-18 16:43:00,
2013-06-18 10:44:00,68.9,59.1,29.89,North,0,1.1,4.7,71,0.00,,,0.00,WUHU216HW,2013-06-18 16:44:00,
2013-06-18 10:45:00,69.1,59.3,29.89,North,0,0.4,4.7,71,0.00,,,0.00,WUHU216HW,2013-06-18 16:45:00,
2013-06-18 10:47:00,69.1,59.0,29.89,North,0,3.4,4.7,70,0.00,,,0.00,WUHU216HW,2013-06-18 16:47:00,
2013-06-18 10:48:00,69.3,59.1,29.89,ESE,113,0.4,4.7,70,0.00,,,0.00,WUHU216HW,2013-06-18 16:48:00,
2013-06-18 10:49:00,69.3,59.1,29.89,ESE,113,0.4,4.7,70,0.00,,,0.00,WUHU216HW,2013-06-18 16:49:00,
2013-06-18 10:50:00,69.3,59.1,29.89,ESE,113,0.0,4.0,70,0.00,,,0.00,WUHU216HW,2013-06-18 16:50:00,
2013-06-18 10:52:00,69.8,59.9,29.89,ENE,68,3.4,4.0,71,0.00,,,0.00,WUHU216HW,2013-06-18 16:52:00,
2013-06-18 10:54:00,69.8,59.9,29.89,ESE,113,1.1,4.0,71,0.00,,,0.00,WUHU216HW,2013-06-18 16:54:00,
2013-06-18 10:56:00,70.2,59.9,29.88,North,0,1.1,4.0,70,0.00,,,0.00,WUHU216HW,2013-06-18 16:56:00,
2013-06-18 10:58:00,70.2,59.9,29.88,NNE,23,1.8,4.0,70,0.00,,,0.00,WUHU216HW,2013-06-18 16:58:00,
2013-06-18 10:59:00,70.2,59.9,29.88,NNE,23,1.8,4.0,70,0.00,,,0.00,WUHU216HW,2013-06-18 16:59:00,
2013-06-18 11:02:00,70.6,60.3,29.88,North,0,2.7,5.3,70,0.00,,,0.00,WUHU216HW,2013-06-18 17:02:00,
2013-06-18 11:04:00,70.7,60.5,29.88,North,0,3.1,5.3,70,0.00,,,0.00,WUHU216HW,2013-06-18 17:04:00,
2013-06-18 11:05:00,71.1,60.8,29.88,North,0,2.5,5.3,70,0.00,,,0.00,WUHU216HW,2013-06-18 17:05:00,
2013-06-18 11:07:00,71.3,60.6,29.88,North,0,3.4,5.3,69,0.00,,,0.00,WUHU216HW,2013-06-18 17:07:00,
2013-06-18 11:09:00,71.3,60.6,29.88,NNE,23,1.6,5.3,69,0.00,,,0.00,WUHU216HW,2013-06-18 17:09:00,
2013-06-18 11:11:00,71.6,61.4,29.88,ENE,68,2.9,4.7,70,0.00,,,0.00,WUHU216HW,2013-06-18 17:11:00,
2013-06-18 11:14:00,72.0,61.7,29.88,NNW,338,2.0,5.0,70,0.00,,,0.00,WUHU216HW,2013-06-18 17:14:00,
2013-06-18 11:15:00,72.2,61.5,29.88,NW,315,2.5,5.0,69,0.00,,,0.00,WUHU216HW,2013-06-18 17:15:00,
2013-06-18 11:16:00,72.2,61.0,29.87,NNE,23,4.3,5.0,68,0.00,,,0.00,WUHU216HW,2013-06-18 17:16:00,
2013-06-18 11:18:00,72.4,61.2,29.87,NNW,338,1.8,5.5,68,0.00,,,0.00,WUHU216HW,2013-06-18 17:18:00,
2013-06-18 11:19:00,72.5,61.4,29.87,North,0,2.5,5.5,68,0.00,,,0.00,WUHU216HW,2013-06-18 17:19:00,
2013-06-18 11:21:00,72.7,60.7,29.87,SSW,203,1.3,6.6,66,0.00,,,0.00,WUHU216HW,2013-06-18 17:21:00,
2013-06-18 11:22:00,72.9,60.8,29.87,NW,315,2.2,6.6,66,0.00,,,0.00,WUHU216HW,2013-06-18 17:22:00,
2013-06-18 11:24:00,72.9,60.8,29.87,NNW,338,3.8,6.6,66,0.00,,,0.00,WUHU216HW,2013-06-18 17:24:00,
2013-06-18 11:25:00,73.1,61.0,29.87,NNW,338,2.2,6.6,66,0.00,,,0.00,WUHU216HW,2013-06-18 17:25:00,
2013-06-18 11:27:00,73.1,61.0,29.87,NE,45,2.0,6.6,66,0.00,,,0.00,WUHU216HW,2013-06-18 17:27:00,
2013-06-18 11:28:00,73.1,61.0,29.87,NE,45,2.0,6.6,66,0.00,,,0.00,WUHU216HW,2013-06-18 17:28:00,
2013-06-18 11:29:00,73.1,61.0,29.87,NE,45,2.0,6.6,66,0.00,,,0.00,WUHU216HW,2013-06-18 17:29:00,
2013-06-18 11:31:00,73.3,61.2,29.87,NW,315,1.8,4.4,66,0.00,,,0.00,WUHU216HW,2013-06-18 17:31:00,
2013-06-18 11:32:00,73.3,61.2,29.87,NNW,338,1.1,4.4,66,0.00,,,0.00,WUHU216HW,2013-06-18 17:32:00,
2013-06-18 11:34:00,73.4,61.4,29.87,North,0,1.8,4.2,66,0.00,,,0.00,WUHU216HW,2013-06-18 17:34:00,
2013-06-18 11:35:00,73.4,61.4,29.87,North,0,1.8,4.2,66,0.00,,,0.00,WUHU216HW,2013-06-18 17:35:00,
2013-06-18 11:36:00,73.6,61.6,29.87,NW,315,1.8,4.2,66,0.00,,,0.00,WUHU216HW,2013-06-18 17:36:00,
2013-06-18 11:38:00,73.8,61.8,29.87,North,0,2.7,4.4,66,0.00,,,0.00,WUHU216HW,2013-06-18 17:38:00,
2013-06-18 11:40:00,74.0,61.9,29.87,NNW,338,2.9,4.4,66,0.00,,,0.00,WUHU216HW,2013-06-18 17:40:00,
2013-06-18 11:42:00,74.2,61.7,29.87,North,0,2.7,4.4,65,0.00,,,0.00,WUHU216HW,2013-06-18 17:42:00,
2013-06-18 11:43:00,74.3,61.4,29.87,East,90,0.7,4.4,64,0.00,,,0.00,WUHU216HW,2013-06-18 17:43:00,
2013-06-18 11:45:00,74.5,61.6,29.86,NW,315,1.1,4.4,64,0.00,,,0.00,WUHU216HW,2013-06-18 17:45:00,
2013-06-18 11:46:00,74.5,61.6,29.86,NNW,338,3.4,5.3,64,0.00,,,0.00,WUHU216HW,2013-06-18 17:46:00,
2013-06-18 11:50:00,74.9,61.5,29.86,NNW,338,2.5,5.3,63,0.00,,,0.00,WUHU216HW,2013-06-18 17:50:00,
2013-06-18 11:51:00,75.1,61.6,29.86,NNW,338,1.1,5.3,63,0.00,,,0.00,WUHU216HW,2013-06-18 17:51:00,
2013-06-18 11:53:00,75.1,61.6,29.86,NW,315,0.9,5.3,63,0.00,,,0.00,WUHU216HW,2013-06-18 17:53:00,
2013-06-18 11:54:00,74.9,61.8,29.86,NNW,338,0.0,5.3,64,0.00,,,0.00,WUHU216HW,2013-06-18 17:54:00,
2013-06-18 11:55:00,74.9,61.8,29.86,NNW,338,0.0,5.3,64,0.00,,,0.00,WUHU216HW,2013-06-18 17:55:00,
2013-06-18 11:57:00,75.1,62.0,29.86,North,0,1.8,4.0,64,0.00,,,0.00,WUHU216HW,2013-06-18 17:57:00,
2013-06-18 11:59:00,75.1,61.6,29.86,NW,315,2.2,2.9,63,0.00,,,0.00,WUHU216HW,2013-06-18 17:59:00,
2013-06-18 12:00:00,75.1,61.6,29.86,NW,315,2.2,2.9,63,0.00,,,0.00,WUHU216HW,2013-06-18 18:00:00,
2013-06-18 12:03:00,75.2,61.4,29.86,NW,315,1.3,4.4,62,0.00,,,0.00,WUHU216HW,2013-06-18 18:03:00,
2013-06-18 12:04:00,75.2,61.4,29.86,North,0,3.4,4.4,62,0.00,,,0.00,WUHU216HW,2013-06-18 18:04:00,
2013-06-18 12:05:00,75.2,61.4,29.86,North,0,3.4,4.4,62,0.00,,,0.00,WUHU216HW,2013-06-18 18:05:00,
2013-06-18 12:06:00,75.2,61.4,29.86,NNW,338,2.2,4.4,62,0.00,,,0.00,WUHU216HW,2013-06-18 18:06:00,
2013-06-18 12:08:00,75.4,61.5,29.86,NW,315,2.9,4.4,62,0.00,,,0.00,WUHU216HW,2013-06-18 18:08:00,
2013-06-18 12:09:00,75.4,61.5,29.86,NW,315,3.4,5.0,62,0.00,,,0.00,WUHU216HW,2013-06-18 18:09:00,
2013-06-18 12:10:00,75.6,60.9,29.85,NW,315,3.4,5.0,60,0.00,,,0.00,WUHU216HW,2013-06-18 18:10:00,
2013-06-18 12:13:00,76.0,61.6,29.85,WNW,293,4.0,5.5,61,0.00,,,0.00,WUHU216HW,2013-06-18 18:13:00,
2013-06-18 12:14:00,76.1,62.2,29.85,NNW,338,3.6,5.5,62,0.00,,,0.00,WUHU216HW,2013-06-18 18:14:00,
2013-06-18 12:16:00,76.3,61.9,29.85,WNW,293,3.8,5.5,61,0.00,,,0.00,WUHU216HW,2013-06-18 18:16:00,
2013-06-18 12:17:00,76.3,61.9,29.85,WNW,293,4.0,5.5,61,0.00,,,0.00,WUHU216HW,2013-06-18 18:17:00,
2013-06-18 12:18:00,76.5,62.1,29.85,WNW,293,4.9,5.7,61,0.00,,,0.00,WUHU216HW,2013-06-18 18:18:00,
2013-06-18 12:19:00,76.7,61.7,29.85,North,0,4.0,5.7,60,0.00,,,0.00,WUHU216HW,2013-06-18 18:19:00,
2013-06-18 12:21:00,76.9,61.5,29.85,NNE,23,4.3,6.3,59,0.00,,,0.00,WUHU216HW,2013-06-18 18:21:00,
2013-06-18 12:24:00,77.2,61.7,29.85,NW,315,4.3,6.3,59,0.00,,,0.00,WUHU216HW,2013-06-18 18:24:00,
2013-06-18 12:25:00,77.4,61.5,29.85,NNW,338,3.6,6.3,58,0.00,,,0.00,WUHU216HW,2013-06-18 18:25:00,
2013-06-18 12:26:00,77.4,61.5,29.85,NNW,338,3.6,6.3,58,0.00,,,0.00,WUHU216HW,2013-06-18 18:26:00,
2013-06-18 12:31:00,77.8,62.3,29.84,NNW,338,4.3,7.0,59,0.00,,,0.00,WUHU216HW,2013-06-18 18:31:00,
2013-06-18 12:32:00,77.9,62.0,29.84,NW,315,4.7,7.0,58,0.00,,,0.00,WUHU216HW,2013-06-18 18:32:00,
2013-06-18 12:33:00,77.9,62.0,29.85,NNW,338,1.1,7.0,58,0.00,,,0.00,WUHU216HW,2013-06-18 18:33:00,
2013-06-18 12:36:00,78.1,62.2,29.84,NNW,338,2.7,7.0,58,0.00,,,0.00,WUHU216HW,2013-06-18 18:36:00,
2013-06-18 12:38:00,78.3,61.8,29.84,NNW,338,4.3,7.0,57,0.00,,,0.00,WUHU216HW,2013-06-18 18:38:00,
2013-06-18 12:39:00,78.5,62.5,29.84,NNW,338,2.9,7.0,58,0.00,,,0.00,WUHU216HW,2013-06-18 18:39:00,
2013-06-18 12:40:00,78.5,63.0,29.84,North,0,2.9,7.0,59,0.00,,,0.00,WUHU216HW,2013-06-18 18:40:00,
2013-06-18 12:41:00,78.7,62.6,29.84,NNW,338,4.7,6.0,58,0.00,,,0.00,WUHU216HW,2013-06-18 18:41:00,
2013-06-18 12:42:00,78.7,62.6,29.84,NNW,338,4.7,6.0,58,0.00,,,0.00,WUHU216HW,2013-06-18 18:42:00,
2013-06-18 12:43:00,78.8,62.8,29.84,NNW,338,4.5,6.0,58,0.00,,,0.00,WUHU216HW,2013-06-18 18:43:00,
2013-06-18 12:44:00,78.8,62.4,29.84,NNW,338,4.0,6.0,57,0.00,,,0.00,WUHU216HW,2013-06-18 18:44:00,
2013-06-18 12:47:00,79.2,63.2,29.84,NNE,23,3.8,6.0,58,0.00,,,0.00,WUHU216HW,2013-06-18 18:47:00,
2013-06-18 12:49:00,79.4,62.3,29.84,NW,315,3.6,6.0,56,0.00,,,0.00,WUHU216HW,2013-06-18 18:49:00,
2013-06-18 12:50:00,79.6,62.5,29.84,NNW,338,2.7,5.7,56,0.00,,,0.00,WUHU216HW,2013-06-18 18:50:00,
2013-06-18 12:52:00,79.6,61.9,29.84,NW,315,4.7,5.7,55,0.00,,,0.00,WUHU216HW,2013-06-18 18:52:00,
2013-06-18 12:53:00,79.7,62.1,29.84,NNW,338,2.5,5.7,55,0.00,,,0.00,WUHU216HW,2013-06-18 18:53:00,
2013-06-18 12:54:00,79.7,62.7,29.84,North,0,1.1,5.5,56,0.00,,,0.00,WUHU216HW,2013-06-18 18:54:00,
2013-06-18 12:56:00,79.7,62.7,29.84,NW,315,0.0,5.5,56,0.00,,,0.00,WUHU216HW,2013-06-18 18:56:00,
2013-06-18 12:57:00,79.9,62.3,29.83,North,0,1.8,5.5,55,0.00,,,0.00,WUHU216HW,2013-06-18 18:57:00,
2013-06-18 12:59:00,79.9,62.8,29.83,ESE,113,1.1,5.5,56,0.00,,,0.00,WUHU216HW,2013-06-18 18:59:00,
2013-06-18 13:01:00,80.1,62.9,29.83,NW,315,1.1,5.5,56,0.00,,,0.00,WUHU216HW,2013-06-18 19:01:00,
2013-06-18 13:02:00,80.1,62.9,29.83,NW,315,1.1,5.5,56,0.00,,,0.00,WUHU216HW,2013-06-18 19:02:00,
2013-06-18 13:04:00,80.3,63.1,29.83,NNW,338,2.0,4.7,56,0.00,,,0.00,WUHU216HW,2013-06-18 19:04:00,
2013-06-18 13:07:00,80.6,63.5,29.83,NNW,338,3.1,4.7,56,0.00,,,0.00,WUHU216HW,2013-06-18 19:07:00,
2013-06-18 13:10:00,81.0,63.7,29.82,North,0,2.0,4.7,56,0.00,,,0.00,WUHU216HW,2013-06-18 19:10:00,
2013-06-18 13:12:00,81.4,63.5,29.82,NNW,338,2.5,4.7,55,0.00,,,0.00,WUHU216HW,2013-06-18 19:12:00,
2013-06-18 13:14:00,81.5,63.7,29.82,ESE,113,3.8,4.7,55,0.00,,,0.00,WUHU216HW,2013-06-18 19:14:00,
2013-06-18 13:17:00,81.7,62.3,29.82,NNE,23,6.5,7.6,52,0.00,,,0.00,WUHU216HW,2013-06-18 19:17:00,
2013-06-18 13:18:00,81.9,59.6,29.82,East,90,5.1,9.1,47,0.00,,,0.00,WUHU216HW,2013-06-18 19:18:00,
2013-06-18 13:19:00,82.1,61.0,29.82,ENE,68,3.4,9.1,49,0.00,,,0.00,WUHU216HW,2013-06-18 19:19:00,
2013-06-18 13:22:00,82.4,61.3,29.82,East,90,2.9,9.1,49,0.00,,,0.00,WUHU216HW,2013-06-18 19:22:00,
2013-06-18 13:23:00,82.4,61.3,29.82,ENE,68,6.5,9.1,49,0.00,,,0.00,WUHU216HW,2013-06-18 19:23:00,
2013-06-18 13:24:00,82.8,61.0,29.82,East,90,6.5,9.1,48,0.00,,,0.00,WUHU216HW,2013-06-18 19:24:00,
2013-06-18 13:25:00,82.8,60.4,29.82,ENE,68,5.8,9.1,47,0.00,,,0.00,WUHU216HW,2013-06-18 19:25:00,
2013-06-18 13:27:00,83.0,60.6,29.82,ESE,113,2.9,9.1,47,0.00,,,0.00,WUHU216HW,2013-06-18 19:27:00,
2013-06-18 13:28:00,83.2,61.4,29.82,SSE,158,4.0,9.1,48,0.00,,,0.00,WUHU216HW,2013-06-18 19:28:00,
2013-06-18 13:32:00,83.3,55.8,29.81,SE,135,3.8,9.1,39,0.00,,,0.00,WUHU216HW,2013-06-18 19:32:00,
2013-06-18 13:35:00,83.3,57.3,29.81,SSE,158,4.7,9.1,41,0.00,,,0.00,WUHU216HW,2013-06-18 19:35:00,
2013-06-18 13:36:00,83.5,57.4,29.81,SE,135,3.8,9.1,41,0.00,,,0.00,WUHU216HW,2013-06-18 19:36:00,
2013-06-18 13:37:00,83.5,58.1,29.81,ESE,113,4.7,9.1,42,0.00,,,0.00,WUHU216HW,2013-06-18 19:37:00,
2013-06-18 13:38:00,83.5,58.1,29.81,ESE,113,4.7,9.1,42,0.00,,,0.00,WUHU216HW,2013-06-18 19:38:00,
2013-06-18 13:40:00,83.7,58.1,29.81,East,90,5.1,9.1,42,0.00,,,0.00,WUHU216HW,2013-06-18 19:40:00,
2013-06-18 13:42:00,83.7,56.2,29.81,SE,135,4.5,8.9,39,0.00,,,0.00,WUHU216HW,2013-06-18 19:42:00,
2013-06-18 13:44:00,83.7,56.2,29.80,SE,135,4.5,8.9,39,0.00,,,0.00,WUHU216HW,2013-06-18 19:44:00,
2013-06-18 13:46:00,83.7,56.2,29.81,SSE,158,5.1,8.9,39,0.00,,,0.00,WUHU216HW,2013-06-18 19:46:00,
2013-06-18 13:47:00,83.7,53.7,29.80,SE,135,6.7,10.4,36,0.00,,,0.00,WUHU216HW,2013-06-18 19:47:00,
2013-06-18 13:48:00,83.7,54.5,29.80,SE,135,4.7,10.8,37,0.00,,,0.00,WUHU216HW,2013-06-18 19:48:00,
2013-06-18 13:50:00,83.9,55.5,29.80,SSE,158,3.4,10.8,38,0.00,,,0.00,WUHU216HW,2013-06-18 19:50:00,
2013-06-18 13:51:00,83.9,55.5,29.80,ESE,113,5.4,10.8,38,0.00,,,0.00,WUHU216HW,2013-06-18 19:51:00,
2013-06-18 13:52:00,83.7,54.5,29.80,SE,135,3.8,10.8,37,0.00,,,0.00,WUHU216HW,2013-06-18 19:52:00,
2013-06-18 13:53:00,83.9,56.4,29.80,SE,135,3.4,10.8,39,0.00,,,0.00,WUHU216HW,2013-06-18 19:53:00,
2013-06-18 13:54:00,83.9,56.4,29.80,East,90,5.1,10.8,39,0.00,,,0.00,WUHU216HW,2013-06-18 19:54:00,
2013-06-18 13:58:00,84.1,56.4,29.80,ENE,68,4.0,10.8,39,0.00,,,0.00,WUHU216HW,2013-06-18 19:58:00,
2013-06-18 14:02:00,84.4,58.2,29.79,North,0,2.2,8.4,41,0.00,,,0.00,WUHU216HW,2013-06-18 20:02:00,
2013-06-18 14:03:00,84.4,58.2,29.79,North,0,2.2,8.4,41,0.00,,,0.00,WUHU216HW,2013-06-18 20:03:00,
2013-06-18 14:04:00,84.8,58.5,29.79,East,90,5.6,8.4,41,0.00,,,0.00,WUHU216HW,2013-06-18 20:04:00,
2013-06-18 14:06:00,84.8,58.5,29.79,ESE,113,6.0,8.4,41,0.00,,,0.00,WUHU216HW,2013-06-18 20:06:00,
2013-06-18 14:08:00,85.0,58.7,29.79,East,90,2.9,8.1,41,0.00,,,0.00,WUHU216HW,2013-06-18 20:08:00,
2013-06-18 14:10:00,85.3,55.3,29.79,East,90,3.6,8.1,36,0.00,,,0.00,WUHU216HW,2013-06-18 20:10:00,
2013-06-18 14:13:00,85.1,56.6,29.79,ESE,113,6.9,9.5,38,0.00,,,0.00,WUHU216HW,2013-06-18 20:13:00,
2013-06-18 14:15:00,85.0,53.3,29.78,East,90,6.3,10.8,34,0.00,,,0.00,WUHU216HW,2013-06-18 20:15:00,
2013-06-18 14:16:00,85.0,53.3,29.79,ESE,113,4.3,10.8,34,0.00,,,0.00,WUHU216HW,2013-06-18 20:16:00,
2013-06-18 14:18:00,84.8,55.5,29.78,ESE,113,4.7,10.8,37,0.00,,,0.00,WUHU216HW,2013-06-18 20:18:00,
2013-06-18 14:19:00,85.0,55.7,29.78,East,90,2.9,10.8,37,0.00,,,0.00,WUHU216HW,2013-06-18 20:19:00,
2013-06-18 14:21:00,85.0,54.1,29.78,ESE,113,4.7,10.8,35,0.00,,,0.00,WUHU216HW,2013-06-18 20:21:00,
2013-06-18 14:22:00,85.0,54.9,29.78,ENE,68,1.3,10.8,36,0.00,,,0.00,WUHU216HW,2013-06-18 20:22:00,
2013-06-18 14:24:00,85.0,55.7,29.78,SE,135,2.7,10.8,37,0.00,,,0.00,WUHU216HW,2013-06-18 20:24:00,
2013-06-18 14:25:00,85.0,56.5,29.78,ENE,68,4.5,8.4,38,0.00,,,0.00,WUHU216HW,2013-06-18 20:25:00,
2013-06-18 14:26:00,85.0,56.5,29.78,ENE,68,3.4,5.5,38,0.00,,,0.00,WUHU216HW,2013-06-18 20:26:00,
2013-06-18 14:28:00,85.0,55.7,29.78,East,90,3.8,5.5,37,0.00,,,0.00,WUHU216HW,2013-06-18 20:28:00,
2013-06-18 14:30:00,85.0,56.5,29.77,East,90,5.8,6.8,38,0.00,,,0.00,WUHU216HW,2013-06-18 20:30:00,
2013-06-18 14:31:00,85.1,56.6,29.77,East,90,6.3,7.4,38,0.00,,,0.00,WUHU216HW,2013-06-18 20:31:00,
2013-06-18 14:32:00,85.0,56.5,29.77,East,90,4.3,7.4,38,0.00,,,0.00,WUHU216HW,2013-06-18 20:32:00,
2013-06-18 14:34:00,85.1,56.6,29.77,NE,45,2.7,7.4,38,0.00,,,0.00,WUHU216HW,2013-06-18 20:34:00,
2013-06-18 14:35:00,85.3,56.0,29.77,East,90,4.5,7.4,37,0.00,,,0.00,WUHU216HW,2013-06-18 20:35:00,
2013-06-18 14:37:00,85.3,55.3,29.77,ENE,68,3.1,7.4,36,0.00,,,0.00,WUHU216HW,2013-06-18 20:37:00,
2013-06-18 14:38:00,85.3,55.3,29.77,ENE,68,5.4,7.4,36,0.00,,,0.00,WUHU216HW,2013-06-18 20:38:00,
2013-06-18 14:39:00,85.7,55.5,29.77,East,90,1.8,7.4,36,0.00,,,0.00,WUHU216HW,2013-06-18 20:39:00,
2013-06-18 14:40:00,85.7,56.3,29.77,ENE,68,3.1,7.4,37,0.00,,,0.00,WUHU216HW,2013-06-18 20:40:00,
2013-06-18 14:41:00,85.7,56.3,29.77,ENE,68,3.1,7.4,37,0.00,,,0.00,WUHU216HW,2013-06-18 20:41:00,
2013-06-18 14:42:00,85.7,56.3,29.77,ENE,68,2.5,6.8,37,0.00,,,0.00,WUHU216HW,2013-06-18 20:42:00,
2013-06-18 14:43:00,85.7,53.2,29.76,NE,45,4.0,6.8,33,0.00,,,0.00,WUHU216HW,2013-06-18 20:43:00,
2013-06-18 14:45:00,85.7,54.7,29.77,ENE,68,5.1,6.8,35,0.00,,,0.00,WUHU216HW,2013-06-18 20:45:00,
2013-06-18 14:46:00,85.7,54.7,29.77,ENE,68,5.1,6.8,35,0.00,,,0.00,WUHU216HW,2013-06-18 20:46:00,
2013-06-18 14:47:00,85.7,54.7,29.76,ENE,68,4.5,6.8,35,0.00,,,0.00,WUHU216HW,2013-06-18 20:47:00,
2013-06-18 14:50:00,85.5,53.8,29.76,East,90,4.3,8.1,34,0.00,,,0.00,WUHU216HW,2013-06-18 20:50:00,
2013-06-18 14:51:00,85.3,52.8,29.76,NE,45,4.9,8.1,33,0.00,,,0.00,WUHU216HW,2013-06-18 20:51:00,
2013-06-18 14:52:00,85.3,52.8,29.76,East,90,6.7,8.1,33,0.00,,,0.00,WUHU216HW,2013-06-18 20:52:00,
2013-06-18 14:54:00,85.3,53.6,29.76,ENE,68,4.0,8.1,34,0.00,,,0.00,WUHU216HW,2013-06-18 20:54:00,
2013-06-18 14:55:00,85.3,52.8,29.76,ENE,68,6.7,10.4,33,0.00,,,0.00,WUHU216HW,2013-06-18 20:55:00,
2013-06-18 14:56:00,85.3,52.8,29.76,ENE,68,6.7,10.4,33,0.00,,,0.00,WUHU216HW,2013-06-18 20:56:00,
2013-06-18 15:00:00,85.7,53.2,29.76,East,90,7.2,10.4,33,0.00,,,0.00,WUHU216HW,2013-06-18 21:00:00,
2013-06-18 15:01:00,85.7,53.2,29.76,East,90,7.2,10.4,33,0.00,,,0.00,WUHU216HW,2013-06-18 21:01:00,
2013-06-18 15:03:00,85.7,53.2,29.75,East,90,6.9,10.4,33,0.00,,,0.00,WUHU216HW,2013-06-18 21:03:00,
2013-06-18 15:04:00,85.7,52.4,29.75,East,90,5.8,10.4,32,0.00,,,0.00,WUHU216HW,2013-06-18 21:04:00,
2013-06-18 15:06:00,85.7,52.4,29.75,NE,45,7.4,9.9,32,0.00,,,0.00,WUHU216HW,2013-06-18 21:06:00,
2013-06-18 15:08:00,85.3,51.3,29.75,East,90,7.8,9.9,31,0.00,,,0.00,WUHU216HW,2013-06-18 21:08:00,
2013-06-18 15:09:00,85.3,50.5,29.75,East,90,8.1,10.8,30,0.00,,,0.00,WUHU216HW,2013-06-18 21:09:00,
2013-06-18 15:11:00,85.0,51.8,29.75,East,90,7.4,12.1,32,0.00,,,0.00,WUHU216HW,2013-06-18 21:11:00,
2013-06-18 15:14:00,84.6,51.4,29.75,East,90,8.5,12.1,32,0.00,,,0.00,WUHU216HW,2013-06-18 21:14:00,
2013-06-18 15:15:00,84.4,50.5,29.75,ENE,68,8.5,12.1,31,0.00,,,0.00,WUHU216HW,2013-06-18 21:15:00,
2013-06-18 15:16:00,84.2,50.3,29.75,East,90,5.8,12.1,31,0.00,,,0.00,WUHU216HW,2013-06-18 21:16:00,
2013-06-18 15:18:00,84.2,49.5,29.75,East,90,8.7,12.1,30,0.00,,,0.00,WUHU216HW,2013-06-18 21:18:00,
2013-06-18 15:20:00,84.1,50.1,29.75,East,90,6.9,11.5,31,0.00,,,0.00,WUHU216HW,2013-06-18 21:20:00,
2013-06-18 15:21:00,84.2,50.3,29.75,East,90,5.1,11.5,31,0.00,,,0.00,WUHU216HW,2013-06-18 21:21:00,
2013-06-18 15:23:00,84.2,50.3,29.74,NE,45,6.3,11.2,31,0.00,,,0.00,WUHU216HW,2013-06-18 21:23:00,
2013-06-18 15:25:00,84.2,50.3,29.74,East,90,6.9,11.2,31,0.00,,,0.00,WUHU216HW,2013-06-18 21:25:00,
2013-06-18 15:26:00,84.2,51.1,29.74,East,90,6.0,10.2,32,0.00,,,0.00,WUHU216HW,2013-06-18 21:26:00,
2013-06-18 15:28:00,84.6,50.6,29.74,ENE,68,6.5,10.2,31,0.00,,,0.00,WUHU216HW,2013-06-18 21:28:00,
2013-06-18 15:30:00,84.6,50.6,29.74,East,90,6.9,9.9,31,0.00,,,0.00,WUHU216HW,2013-06-18 21:30:00,
2013-06-18 15:31:00,84.6,51.4,29.74,ENE,68,6.9,9.9,32,0.00,,,0.00,WUHU216HW,2013-06-18 21:31:00,
2013-06-18 15:33:00,84.6,50.6,29.74,East,90,10.5,12.3,31,0.00,,,0.00,WUHU216HW,2013-06-18 21:33:00,
2013-06-18 15:34:00,84.6,49.9,29.74,East,90,7.2,12.3,30,0.00,,,0.00,WUHU216HW,2013-06-18 21:34:00,
2013-06-18 15:36:00,84.6,51.4,29.74,East,90,5.6,12.3,32,0.00,,,0.00,WUHU216HW,2013-06-18 21:36:00,
2013-06-18 15:38:00,84.6,50.6,29.74,ESE,113,10.1,12.3,31,0.00,,,0.00,WUHU216HW,2013-06-18 21:38:00,
2013-06-18 15:39:00,84.6,51.4,29.74,ESE,113,8.5,12.3,32,0.00,,,0.00,WUHU216HW,2013-06-18 21:39:00,
2013-06-18 15:41:00,84.8,49.0,29.74,East,90,9.6,12.3,29,0.00,,,0.00,WUHU216HW,2013-06-18 21:41:00,
2013-06-18 15:43:00,85.0,51.8,29.73,East,90,11.4,13.3,32,0.00,,,0.00,WUHU216HW,2013-06-18 21:43:00,
2013-06-18 15:45:00,85.3,49.4,29.73,ENE,68,9.2,13.3,29,0.00,,,0.00,WUHU216HW,2013-06-18 21:45:00,
2013-06-18 15:46:00,85.5,48.5,29.73,East,90,8.9,13.3,28,0.00,,,0.00,WUHU216HW,2013-06-18 21:46:00,
2013-06-18 15:47:00,85.5,48.5,29.73,East,90,8.9,13.3,28,0.00,,,0.00,WUHU216HW,2013-06-18 21:47:00,
2013-06-18 15:50:00,85.7,45.5,29.73,East,90,9.8,13.3,25,0.00,,,0.00,WUHU216HW,2013-06-18 21:50:00,
2013-06-18 15:51:00,85.7,47.6,29.73,ESE,113,10.1,13.3,27,0.00,,,0.00,WUHU216HW,2013-06-18 21:51:00,
2013-06-18 15:52:00,85.7,48.6,29.73,East,90,7.6,13.3,28,0.00,,,0.00,WUHU216HW,2013-06-18 21:52:00,
2013-06-18 15:54:00,85.3,48.3,29.73,ENE,68,6.9,12.3,28,0.00,,,0.00,WUHU216HW,2013-06-18 21:54:00,
2013-06-18 15:56:00,85.3,46.2,29.73,East,90,8.5,12.3,26,0.00,,,0.00,WUHU216HW,2013-06-18 21:56:00,
2013-06-18 15:57:00,85.1,48.2,29.73,East,90,6.3,12.3,28,0.00,,,0.00,WUHU216HW,2013-06-18 21:57:00,
2013-06-18 15:59:00,85.0,50.1,29.73,East,90,4.7,11.8,30,0.00,,,0.00,WUHU216HW,2013-06-18 21:59:00,
2013-06-18 16:01:00,85.0,50.9,29.73,NE,45,0.9,11.8,31,0.00,,,0.00,WUHU216HW,2013-06-18 22:01:00,
2013-06-18 16:02:00,85.0,50.9,29.73,NE,45,0.9,11.8,31,0.00,,,0.00,WUHU216HW,2013-06-18 22:02:00,
2013-06-18 16:07:00,84.4,52.8,29.73,NNW,338,3.8,8.1,34,0.00,,,0.00,WUHU216HW,2013-06-18 22:07:00,
2013-06-18 16:08:00,84.2,55.1,29.73,NW,315,4.7,8.1,37,0.00,,,0.00,WUHU216HW,2013-06-18 22:08:00,
2013-06-18 16:10:00,83.9,55.5,29.73,NW,315,2.5,8.1,38,0.00,,,0.00,WUHU216HW,2013-06-18 22:10:00,
2013-06-18 16:12:00,83.7,55.4,29.73,NNW,338,4.7,8.1,38,0.00,,,0.00,WUHU216HW,2013-06-18 22:12:00,
2013-06-18 16:13:00,83.5,55.2,29.73,NW,315,1.8,8.1,38,0.00,,,0.00,WUHU216HW,2013-06-18 22:13:00,
2013-06-18 16:16:00,83.0,55.5,29.73,NW,315,4.7,6.6,39,0.00,,,0.00,WUHU216HW,2013-06-18 22:16:00,
2013-06-18 16:17:00,83.0,55.5,29.73,NW,315,4.7,6.6,39,0.00,,,0.00,WUHU216HW,2013-06-18 22:17:00,
2013-06-18 16:19:00,82.8,54.5,29.72,WNW,293,3.4,5.5,38,0.00,,,0.00,WUHU216HW,2013-06-18 22:19:00,
2013-06-18 16:21:00,82.6,55.2,29.72,NNE,23,2.5,5.5,39,0.00,,,0.00,WUHU216HW,2013-06-18 22:21:00,
2013-06-18 16:22:00,82.6,55.2,29.72,NNE,23,2.5,5.5,39,0.00,,,0.00,WUHU216HW,2013-06-18 22:22:00,
2013-06-18 16:24:00,82.4,55.0,29.72,WNW,293,7.2,8.4,39,0.00,,,0.00,WUHU216HW,2013-06-18 22:24:00,
2013-06-18 16:26:00,81.9,53.7,29.72,NW,315,6.3,11.8,38,0.00,,,0.00,WUHU216HW,2013-06-18 22:26:00,
2013-06-18 16:27:00,81.5,54.2,29.72,NW,315,8.5,11.8,39,0.00,,,0.00,WUHU216HW,2013-06-18 22:27:00,
2013-06-18 16:29:00,81.0,54.6,29.72,NW,315,9.2,12.9,40,0.00,,,0.00,WUHU216HW,2013-06-18 22:29:00,
2013-06-18 16:30:00,80.5,54.6,29.72,WNW,293,8.5,12.9,41,0.00,,,0.00,WUHU216HW,2013-06-18 22:30:00,
2013-06-18 16:31:00,80.3,54.5,29.72,WNW,293,6.9,12.9,41,0.00,,,0.00,WUHU216HW,2013-06-18 22:31:00,
2013-06-18 16:32:00,80.3,54.5,29.72,WNW,293,6.9,12.9,41,0.00,,,0.00,WUHU216HW,2013-06-18 22:32:00,
2013-06-18 16:33:00,79.9,54.2,29.72,NW,315,10.1,12.9,41,0.00,,,0.00,WUHU216HW,2013-06-18 22:33:00,
2013-06-18 16:34:00,79.7,54.0,29.72,NW,315,10.7,12.9,41,0.00,,,0.00,WUHU216HW,2013-06-18 22:34:00,
2013-06-18 16:36:00,79.7,54.0,29.72,NW,315,9.2,12.9,41,0.00,,,0.00,WUHU216HW,2013-06-18 22:36:00,
2013-06-18 16:37:00,79.6,54.5,29.73,West,270,10.7,13.3,42,0.00,,,0.00,WUHU216HW,2013-06-18 22:37:00,
2013-06-18 16:38:00,79.6,55.1,29.72,WNW,293,8.1,13.3,43,0.00,,,0.00,WUHU216HW,2013-06-18 22:38:00,
2013-06-18 16:40:00,79.4,55.5,29.73,WNW,293,10.1,13.3,44,0.00,,,0.00,WUHU216HW,2013-06-18 22:40:00,
2013-06-18 16:42:00,79.2,55.4,29.73,WNW,293,8.5,13.3,44,0.00,,,0.00,WUHU216HW,2013-06-18 22:42:00,
2013-06-18 16:43:00,79.0,55.8,29.72,NW,315,9.4,13.3,45,0.00,,,0.00,WUHU216HW,2013-06-18 22:43:00,
2013-06-18 16:44:00,79.0,55.2,29.72,WNW,293,6.3,13.3,44,0.00,,,0.00,WUHU216HW,2013-06-18 22:44:00,
2013-06-18 16:47:00,79.0,55.8,29.72,WNW,293,8.3,13.3,45,0.00,,,0.00,WUHU216HW,2013-06-18 22:47:00,
2013-06-18 16:49:00,79.0,55.8,29.72,NW,315,6.7,13.3,45,0.00,,,0.00,WUHU216HW,2013-06-18 22:49:00,
2013-06-18 16:50:00,78.8,55.6,29.72,NNW,338,7.2,13.3,45,0.00,,,0.00,WUHU216HW,2013-06-18 22:50:00,
2013-06-18 16:51:00,78.8,56.3,29.72,WNW,293,8.3,13.1,46,0.00,,,0.00,WUHU216HW,2013-06-18 22:51:00,
2013-06-18 16:52:00,78.8,56.3,29.72,WNW,293,8.3,13.1,46,0.00,,,0.00,WUHU216HW,2013-06-18 22:52:00,
2013-06-18 16:54:00,78.8,55.0,29.72,WNW,293,6.9,13.1,44,0.00,,,0.00,WUHU216HW,2013-06-18 22:54:00,
2013-06-18 16:56:00,78.7,55.4,29.73,NW,315,10.5,13.1,45,0.00,,,0.00,WUHU216HW,2013-06-18 22:56:00,
2013-06-18 16:57:00,78.7,56.1,29.73,West,270,9.2,13.1,46,0.00,,,0.00,WUHU216HW,2013-06-18 22:57:00,
2013-06-18 16:58:00,78.3,55.2,29.73,WNW,293,9.8,12.3,45,0.00,,,0.00,WUHU216HW,2013-06-18 22:58:00,
2013-06-18 17:00:00,78.3,55.2,29.73,WNW,293,8.5,12.3,45,0.00,,,0.00,WUHU216HW,2013-06-18 23:00:00,
2013-06-18 17:02:00,78.1,55.0,29.73,NW,315,6.7,12.3,45,0.00,,,0.00,WUHU216HW,2013-06-18 23:02:00,
2013-06-18 17:05:00,77.8,54.6,29.73,NW,315,10.5,12.9,45,0.00,,,0.00,WUHU216HW,2013-06-18 23:05:00,
2013-06-18 17:06:00,77.8,54.6,29.73,WNW,293,9.8,12.9,45,0.00,,,0.00,WUHU216HW,2013-06-18 23:06:00,
2013-06-18 17:07:00,77.8,54.6,29.73,WNW,293,9.8,12.9,45,0.00,,,0.00,WUHU216HW,2013-06-18 23:07:00,
2013-06-18 17:08:00,77.4,54.4,29.73,WNW,293,6.3,12.9,45,0.00,,,0.00,WUHU216HW,2013-06-18 23:08:00,
2013-06-18 17:09:00,77.4,54.4,29.73,West,270,7.8,12.9,45,0.00,,,0.00,WUHU216HW,2013-06-18 23:09:00,
2013-06-18 17:11:00,77.0,54.0,29.73,NW,315,8.9,12.9,45,0.00,,,0.00,WUHU216HW,2013-06-18 23:11:00,
2013-06-18 17:12:00,76.9,54.5,29.72,NW,315,9.6,12.9,46,0.00,,,0.00,WUHU216HW,2013-06-18 23:12:00,
2013-06-18 17:13:00,76.5,54.7,29.72,WNW,293,7.2,12.3,47,0.00,,,0.00,WUHU216HW,2013-06-18 23:13:00,
2013-06-18 17:15:00,76.3,55.2,29.72,NW,315,10.1,12.3,48,0.00,,,0.00,WUHU216HW,2013-06-18 23:15:00,
2013-06-18 17:18:00,76.0,55.4,29.72,WNW,293,8.9,12.3,49,0.00,,,0.00,WUHU216HW,2013-06-18 23:18:00,
2013-06-18 17:19:00,75.8,55.4,29.72,NW,315,9.4,12.3,49,0.00,,,0.00,WUHU216HW,2013-06-18 23:19:00,
2013-06-18 17:21:00,75.6,55.2,29.72,NW,315,6.3,12.3,49,0.00,,,0.00,WUHU216HW,2013-06-18 23:21:00,
2013-06-18 17:22:00,75.6,55.8,29.72,NW,315,7.6,12.3,50,0.00,,,0.00,WUHU216HW,2013-06-18 23:22:00,
2013-06-18 17:23:00,75.6,55.8,29.72,NW,315,7.6,12.3,50,0.00,,,0.00,WUHU216HW,2013-06-18 23:23:00,
2013-06-18 17:26:00,75.2,55.4,29.72,NNW,338,5.1,11.8,50,0.00,,,0.00,WUHU216HW,2013-06-18 23:26:00,
2013-06-18 17:28:00,75.2,54.8,29.72,NNW,338,4.7,11.5,49,0.00,,,0.00,WUHU216HW,2013-06-18 23:28:00,
2013-06-18 17:30:00,75.1,54.0,29.73,NW,315,5.4,9.7,48,0.00,,,0.00,WUHU216HW,2013-06-18 23:30:00,
2013-06-18 17:33:00,75.1,54.0,29.73,WNW,293,4.5,9.7,48,0.00,,,0.00,WUHU216HW,2013-06-18 23:33:00,
2013-06-18 17:34:00,75.1,53.5,29.73,WNW,293,7.4,8.7,47,0.00,,,0.00,WUHU216HW,2013-06-18 23:34:00,
2013-06-18 17:35:00,75.1,52.8,29.73,WNW,293,4.5,8.7,46,0.00,,,0.00,WUHU216HW,2013-06-18 23:35:00,
2013-06-18 17:38:00,75.2,53.0,29.73,NW,315,3.4,8.7,46,0.00,,,0.00,WUHU216HW,2013-06-18 23:38:00,
2013-06-18 17:40:00,75.2,52.4,29.73,NW,315,5.8,10.8,45,0.00,,,0.00,WUHU216HW,2013-06-18 23:40:00,
2013-06-18 17:41:00,75.4,53.2,29.73,NW,315,4.7,10.8,46,0.00,,,0.00,WUHU216HW,2013-06-18 23:41:00,
2013-06-18 17:42:00,75.4,53.2,29.73,NW,315,6.0,10.8,46,0.00,,,0.00,WUHU216HW,2013-06-18 23:42:00,
2013-06-18 17:43:00,75.4,53.2,29.73,NW,315,6.0,10.8,46,0.00,,,0.00,WUHU216HW,2013-06-18 23:43:00,
2013-06-18 17:44:00,75.4,53.2,29.72,NW,315,5.1,10.8,46,0.00,,,0.00,WUHU216HW,2013-06-18 23:44:00,
2013-06-18 17:45:00,75.4,53.2,29.72,NW,315,4.7,10.8,46,0.00,,,0.00,WUHU216HW,2013-06-18 23:45:00,
2013-06-18 17:47:00,75.4,53.2,29.72,NW,315,5.1,10.8,46,0.00,,,0.00,WUHU216HW,2013-06-18 23:47:00,
2013-06-18 17:48:00,75.4,53.7,29.72,WNW,293,4.3,10.8,47,0.00,,,0.00,WUHU216HW,2013-06-18 23:48:00,
2013-06-18 17:51:00,75.2,54.8,29.72,NW,315,3.4,8.1,49,0.00,,,0.00,WUHU216HW,2013-06-18 23:51:00,
2013-06-18 17:53:00,75.2,54.8,29.72,WNW,293,5.6,8.1,49,0.00,,,0.00,WUHU216HW,2013-06-18 23:53:00,
2013-06-18 17:56:00,75.2,56.0,29.72,WNW,293,6.5,8.9,51,0.00,,,0.00,WUHU216HW,2013-06-18 23:56:00,
2013-06-18 17:58:00,75.2,56.4,29.71,NNW,338,7.6,9.1,52,0.00,,,0.00,WUHU216HW,2013-06-18 23:58:00,
2013-06-18 17:59:00,75.2,56.4,29.71,NNW,338,7.6,9.1,52,0.00,,,0.00,WUHU216HW,2013-06-18 23:59:00,
2013-06-18 18:02:00,74.9,56.6,29.72,NNW,338,4.5,9.1,53,0.00,,,0.00,WUHU216HW,2013-06-19 00:02:00,
2013-06-18 18:04:00,74.9,56.6,29.72,NW,315,4.0,9.1,53,0.00,,,0.00,WUHU216HW,2013-06-19 00:04:00,
2013-06-18 18:07:00,74.9,57.1,29.71,NW,315,5.4,9.1,54,0.00,,,0.00,WUHU216HW,2013-06-19 00:07:00,
2013-06-18 18:09:00,74.9,57.6,29.71,NNW,338,6.9,9.9,55,0.00,,,0.00,WUHU216HW,2013-06-19 00:09:00,
2013-06-18 18:10:00,74.9,58.2,29.71,NW,315,6.3,9.9,56,0.00,,,0.00,WUHU216HW,2013-06-19 00:10:00,
2013-06-18 18:11:00,75.1,58.3,29.72,WNW,293,7.4,9.9,56,0.00,,,0.00,WUHU216HW,2013-06-19 00:11:00,
2013-06-18 18:13:00,75.1,58.8,29.72,WNW,293,7.8,9.9,57,0.00,,,0.00,WUHU216HW,2013-06-19 00:13:00,
2013-06-18 18:14:00,75.1,58.8,29.72,WNW,293,7.8,9.9,57,0.00,,,0.00,WUHU216HW,2013-06-19 00:14:00,
2013-06-18 18:16:00,75.2,59.0,29.72,NW,315,6.0,9.9,57,0.00,,,0.00,WUHU216HW,2013-06-19 00:16:00,
2013-06-18 18:18:00,75.2,57.0,29.72,WNW,293,6.9,9.9,53,0.00,,,0.00,WUHU216HW,2013-06-19 00:18:00,
2013-06-18 18:19:00,75.2,56.4,29.72,West,270,5.4,9.1,52,0.00,,,0.00,WUHU216HW,2013-06-19 00:19:00,
2013-06-18 18:22:00,75.1,55.3,29.71,NW,315,7.8,9.1,50,0.00,,,0.00,WUHU216HW,2013-06-19 00:22:00,
2013-06-18 18:24:00,74.9,54.5,29.71,NW,315,6.3,10.2,49,0.00,,,0.00,WUHU216HW,2013-06-19 00:24:00,
2013-06-18 18:26:00,74.7,53.7,29.71,NW,315,4.7,10.2,48,0.00,,,0.00,WUHU216HW,2013-06-19 00:26:00,
2013-06-18 18:27:00,74.5,54.1,29.71,WNW,293,5.6,10.2,49,0.00,,,0.00,WUHU216HW,2013-06-19 00:27:00,
2013-06-18 18:29:00,74.5,53.6,29.72,NW,315,6.9,10.2,48,0.00,,,0.00,WUHU216HW,2013-06-19 00:29:00,
2013-06-18 18:30:00,74.3,53.4,29.71,North,0,5.8,10.8,48,0.00,,,0.00,WUHU216HW,2013-06-19 00:30:00,
2013-06-18 18:34:00,74.5,52.3,29.72,NNW,338,8.1,10.8,46,0.00,,,0.00,WUHU216HW,2013-06-19 00:34:00,
2013-06-18 18:35:00,74.5,52.3,29.72,NNW,338,8.1,10.8,46,0.00,,,0.00,WUHU216HW,2013-06-19 00:35:00,
2013-06-18 18:36:00,74.5,51.7,29.72,North,0,9.2,11.8,45,0.00,,,0.00,WUHU216HW,2013-06-19 00:36:00,
2013-06-18 18:37:00,74.5,51.7,29.72,NE,45,5.1,11.8,45,0.00,,,0.00,WUHU216HW,2013-06-19 00:37:00,
2013-06-18 18:40:00,74.5,51.1,29.72,NNW,338,8.9,11.8,44,0.00,,,0.00,WUHU216HW,2013-06-19 00:40:00,
2013-06-18 18:42:00,74.3,49.7,29.71,NNW,338,9.8,15.0,42,0.00,,,0.00,WUHU216HW,2013-06-19 00:42:00,
2013-06-18 18:43:00,74.3,49.2,29.71,North,0,11.6,15.9,41,0.00,,,0.00,WUHU216HW,2013-06-19 00:43:00,
2013-06-18 18:44:00,74.3,49.7,29.71,NNE,23,8.9,15.9,42,0.00,,,0.00,WUHU216HW,2013-06-19 00:44:00,
2013-06-18 18:45:00,74.3,49.7,29.71,NNE,23,8.9,15.9,42,0.00,,,0.00,WUHU216HW,2013-06-19 00:45:00,
2013-06-18 18:47:00,74.3,49.2,29.71,NNE,23,8.3,15.9,41,0.00,,,0.00,WUHU216HW,2013-06-19 00:47:00,
2013-06-18 18:48:00,74.5,49.9,29.71,NNW,338,9.6,15.9,42,0.00,,,0.00,WUHU216HW,2013-06-19 00:48:00,
2013-06-18 18:50:00,74.3,49.7,29.71,NNE,23,7.2,15.9,42,0.00,,,0.00,WUHU216HW,2013-06-19 00:50:00,
2013-06-18 18:52:00,74.3,49.7,29.71,NNE,23,6.9,15.9,42,0.00,,,0.00,WUHU216HW,2013-06-19 00:52:00,
2013-06-18 18:53:00,74.3,49.7,29.71,NNE,23,6.3,15.0,42,0.00,,,0.00,WUHU216HW,2013-06-19 00:53:00,
2013-06-18 18:55:00,74.3,49.7,29.71,NNW,338,4.0,15.0,42,0.00,,,0.00,WUHU216HW,2013-06-19 00:55:00,
2013-06-18 18:56:00,74.2,49.6,29.72,North,0,9.2,15.0,42,0.00,,,0.00,WUHU216HW,2013-06-19 00:56:00,
2013-06-18 18:57:00,74.2,49.6,29.71,NNW,338,6.9,12.9,42,0.00,,,0.00,WUHU216HW,2013-06-19 00:57:00,
2013-06-18 18:59:00,74.2,49.6,29.71,North,0,6.3,12.9,42,0.00,,,0.00,WUHU216HW,2013-06-19 00:59:00,
2013-06-18 19:00:00,74.2,49.6,29.71,North,0,6.3,12.9,42,0.00,,,0.00,WUHU216HW,2013-06-19 01:00:00,
2013-06-18 19:02:00,74.3,49.2,29.70,NW,315,4.7,16.7,41,0.00,,,0.00,WUHU216HW,2013-06-19 01:02:00,
2013-06-18 19:05:00,74.3,49.7,29.70,NNE,23,4.9,16.7,42,0.00,,,0.00,WUHU216HW,2013-06-19 01:05:00,
2013-06-18 19:06:00,74.5,49.9,29.70,NE,45,8.9,16.7,42,0.00,,,0.00,WUHU216HW,2013-06-19 01:06:00,
2013-06-18 19:07:00,74.5,49.3,29.70,North,0,11.9,16.7,41,0.00,,,0.00,WUHU216HW,2013-06-19 01:07:00,
2013-06-18 19:10:00,74.9,50.2,29.70,NNE,23,6.7,16.7,42,0.00,,,0.00,WUHU216HW,2013-06-19 01:10:00,
2013-06-18 19:13:00,75.2,50.6,29.70,North,0,6.9,14.4,42,0.00,,,0.00,WUHU216HW,2013-06-19 01:13:00,
2013-06-18 19:15:00,75.4,50.7,29.70,North,0,9.8,14.4,42,0.00,,,0.00,WUHU216HW,2013-06-19 01:15:00,
2013-06-18 19:16:00,75.4,50.7,29.70,NNE,23,6.3,14.4,42,0.00,,,0.00,WUHU216HW,2013-06-19 01:16:00,
2013-06-18 19:17:00,75.4,50.7,29.70,North,0,6.9,13.9,42,0.00,,,0.00,WUHU216HW,2013-06-19 01:17:00,
2013-06-18 19:19:00,75.6,50.2,29.70,North,0,4.0,13.9,41,0.00,,,0.00,WUHU216HW,2013-06-19 01:19:00,
2013-06-18 19:20:00,75.4,50.1,29.71,NE,45,5.4,13.9,41,0.00,,,0.00,WUHU216HW,2013-06-19 01:20:00,
2013-06-18 19:21:00,75.4,50.1,29.71,NE,45,5.4,13.9,41,0.00,,,0.00,WUHU216HW,2013-06-19 01:21:00,
2013-06-18 19:24:00,75.1,50.4,29.71,North,0,8.3,11.5,42,0.00,,,0.00,WUHU216HW,2013-06-19 01:24:00,
2013-06-18 19:26:00,75.1,49.8,29.70,ENE,68,5.6,11.5,41,0.00,,,0.00,WUHU216HW,2013-06-19 01:26:00,
2013-06-18 19:29:00,74.9,50.2,29.70,North,0,5.1,10.4,42,0.00,,,0.00,WUHU216HW,2013-06-19 01:29:00,
2013-06-18 19:30:00,74.7,50.0,29.71,NNE,23,6.9,10.4,42,0.00,,,0.00,WUHU216HW,2013-06-19 01:30:00,
2013-06-18 19:31:00,74.7,50.0,29.71,NNE,23,6.9,10.4,42,0.00,,,0.00,WUHU216HW,2013-06-19 01:31:00,
2013-06-18 19:34:00,74.7,50.0,29.71,NNE,23,8.7,10.2,42,0.00,,,0.00,WUHU216HW,2013-06-19 01:34:00,
2013-06-18 19:35:00,74.7,50.0,29.70,NNW,338,7.6,10.8,42,0.00,,,0.00,WUHU216HW,2013-06-19 01:35:00,
2013-06-18 19:36:00,74.7,50.0,29.70,NNW,338,7.6,10.8,42,0.00,,,0.00,WUHU216HW,2013-06-19 01:36:00,
2013-06-18 19:37:00,74.7,50.0,29.70,NW,315,8.5,10.8,42,0.00,,,0.00,WUHU216HW,2013-06-19 01:37:00,
2013-06-18 19:38:00,74.7,50.0,29.70,NW,315,6.9,11.5,42,0.00,,,0.00,WUHU216HW,2013-06-19 01:38:00,
2013-06-18 19:40:00,74.7,50.0,29.71,North,0,7.8,11.5,42,0.00,,,0.00,WUHU216HW,2013-06-19 01:40:00,
2013-06-18 19:41:00,74.7,50.0,29.71,North,0,7.8,11.5,42,0.00,,,0.00,WUHU216HW,2013-06-19 01:41:00,
2013-06-18 19:43:00,74.5,49.9,29.70,North,0,8.5,11.5,42,0.00,,,0.00,WUHU216HW,2013-06-19 01:43:00,
2013-06-18 19:45:00,74.5,49.3,29.71,North,0,7.6,12.3,41,0.00,,,0.00,WUHU216HW,2013-06-19 01:45:00,
2013-06-18 19:46:00,74.5,49.3,29.71,North,0,7.6,12.3,41,0.00,,,0.00,WUHU216HW,2013-06-19 01:46:00,
2013-06-18 19:47:00,74.5,49.3,29.71,North,0,8.1,12.3,41,0.00,,,0.00,WUHU216HW,2013-06-19 01:47:00,
2013-06-18 19:49:00,74.5,49.3,29.70,North,0,6.7,12.3,41,0.00,,,0.00,WUHU216HW,2013-06-19 01:49:00,
2013-06-18 19:50:00,74.5,49.3,29.71,North,0,9.2,12.3,41,0.00,,,0.00,WUHU216HW,2013-06-19 01:50:00,
2013-06-18 19:51:00,74.5,49.3,29.71,North,0,9.2,12.3,41,0.00,,,0.00,WUHU216HW,2013-06-19 01:51:00,
2013-06-18 19:53:00,74.3,49.7,29.70,North,0,8.1,12.3,42,0.00,,,0.00,WUHU216HW,2013-06-19 01:53:00,
2013-06-18 19:54:00,74.3,49.2,29.70,North,0,8.5,11.8,41,0.00,,,0.00,WUHU216HW,2013-06-19 01:54:00,
2013-06-18 19:55:00,74.2,49.6,29.70,North,0,9.2,11.8,42,0.00,,,0.00,WUHU216HW,2013-06-19 01:55:00,
2013-06-18 19:56:00,74.2,49.6,29.70,North,0,9.2,11.8,42,0.00,,,0.00,WUHU216HW,2013-06-19 01:56:00,
2013-06-18 19:57:00,74.2,49.6,29.70,NNE,23,8.5,11.8,42,0.00,,,0.00,WUHU216HW,2013-06-19 01:57:00,
2013-06-18 20:00:00,74.2,49.6,29.70,North,0,4.0,11.8,42,0.00,,,0.00,WUHU216HW,2013-06-19 02:00:00,
2013-06-18 20:01:00,74.2,49.6,29.70,North,0,4.0,11.8,42,0.00,,,0.00,WUHU216HW,2013-06-19 02:01:00,
2013-06-18 20:02:00,74.0,50.0,29.70,NNW,338,5.1,11.8,43,0.00,,,0.00,WUHU216HW,2013-06-19 02:02:00,
2013-06-18 20:03:00,73.8,49.9,29.70,NNW,338,4.5,11.8,43,0.00,,,0.00,WUHU216HW,2013-06-19 02:03:00,
2013-06-18 20:06:00,73.6,50.2,29.70,NNE,23,4.7,10.4,44,0.00,,,0.00,WUHU216HW,2013-06-19 02:06:00,
2013-06-18 20:10:00,73.3,50.0,29.70,NE,45,7.2,8.4,44,0.00,,,0.00,WUHU216HW,2013-06-19 02:10:00,
2013-06-18 20:11:00,73.1,49.8,29.70,NNW,338,7.4,8.7,44,0.00,,,0.00,WUHU216HW,2013-06-19 02:11:00,
2013-06-18 20:12:00,73.1,49.8,29.70,North,0,4.7,8.7,44,0.00,,,0.00,WUHU216HW,2013-06-19 02:12:00,
2013-06-18 20:13:00,73.1,49.8,29.70,NNW,338,4.7,8.7,44,0.00,,,0.00,WUHU216HW,2013-06-19 02:13:00,
2013-06-18 20:17:00,72.9,50.2,29.70,North,0,6.9,8.7,45,0.00,,,0.00,WUHU216HW,2013-06-19 02:17:00,
2013-06-18 20:18:00,72.7,50.6,29.70,North,0,7.8,9.1,46,0.00,,,0.00,WUHU216HW,2013-06-19 02:18:00,
2013-06-18 20:21:00,72.5,50.5,29.70,NNE,23,7.4,9.1,46,0.00,,,0.00,WUHU216HW,2013-06-19 02:21:00,
2013-06-18 20:22:00,72.5,50.5,29.70,NNE,23,7.4,9.1,46,0.00,,,0.00,WUHU216HW,2013-06-19 02:22:00,
2013-06-18 20:23:00,72.5,51.0,29.70,North,0,4.3,9.1,47,0.00,,,0.00,WUHU216HW,2013-06-19 02:23:00,
2013-06-18 20:25:00,72.4,50.9,29.70,North,0,5.4,9.1,47,0.00,,,0.00,WUHU216HW,2013-06-19 02:25:00,
2013-06-18 20:26:00,72.4,50.9,29.70,North,0,5.6,9.1,47,0.00,,,0.00,WUHU216HW,2013-06-19 02:26:00,
2013-06-18 20:27:00,72.4,50.9,29.70,North,0,5.6,9.1,47,0.00,,,0.00,WUHU216HW,2013-06-19 02:27:00,
2013-06-18 20:28:00,72.4,50.9,29.70,NNW,338,4.7,9.1,47,0.00,,,0.00,WUHU216HW,2013-06-19 02:28:00,
2013-06-18 20:29:00,72.2,51.3,29.70,North,0,5.6,8.7,48,0.00,,,0.00,WUHU216HW,2013-06-19 02:29:00,
2013-06-18 20:31:00,72.2,51.3,29.70,NNW,338,4.5,8.1,48,0.00,,,0.00,WUHU216HW,2013-06-19 02:31:00,
2013-06-18 20:32:00,72.0,51.1,29.70,North,0,5.1,7.6,48,0.00,,,0.00,WUHU216HW,2013-06-19 02:32:00,
2013-06-18 20:33:00,72.0,51.1,29.70,North,0,3.4,7.6,48,0.00,,,0.00,WUHU216HW,2013-06-19 02:33:00,
2013-06-18 20:35:00,72.0,51.1,29.70,NNW,338,3.4,7.6,48,0.00,,,0.00,WUHU216HW,2013-06-19 02:35:00,
2013-06-18 20:36:00,71.8,51.0,29.70,NNE,23,5.1,7.6,48,0.00,,,0.00,WUHU216HW,2013-06-19 02:36:00,
2013-06-18 20:37:00,71.8,51.0,29.70,NNE,23,5.1,7.6,48,0.00,,,0.00,WUHU216HW,2013-06-19 02:37:00,
2013-06-18 20:38:00,71.8,51.6,29.70,North,0,3.4,7.6,49,0.00,,,0.00,WUHU216HW,2013-06-19 02:38:00,
2013-06-18 20:41:00,71.6,51.4,29.70,NNW,338,3.6,7.6,49,0.00,,,0.00,WUHU216HW,2013-06-19 02:41:00,
2013-06-18 20:42:00,71.6,51.4,29.70,NNW,338,3.6,7.6,49,0.00,,,0.00,WUHU216HW,2013-06-19 02:42:00,
2013-06-18 20:43:00,71.5,51.3,29.70,NNW,338,2.7,6.6,49,0.00,,,0.00,WUHU216HW,2013-06-19 02:43:00,
2013-06-18 20:44:00,71.5,51.3,29.70,NNW,338,2.5,6.6,49,0.00,,,0.00,WUHU216HW,2013-06-19 02:44:00,
2013-06-18 20:46:00,71.3,51.7,29.70,North,0,1.3,6.6,50,0.00,,,0.00,WUHU216HW,2013-06-19 02:46:00,
2013-06-18 20:48:00,71.3,51.7,29.70,NNW,338,5.4,6.6,50,0.00,,,0.00,WUHU216HW,2013-06-19 02:48:00,
2013-06-18 20:50:00,71.1,50.9,29.70,North,0,4.0,6.6,49,0.00,,,0.00,WUHU216HW,2013-06-19 02:50:00,
2013-06-18 20:51:00,71.1,50.9,29.70,NNE,23,5.1,6.3,49,0.00,,,0.00,WUHU216HW,2013-06-19 02:51:00,
2013-06-18 20:53:00,70.9,50.8,29.70,NW,315,2.9,6.6,49,0.00,,,0.00,WUHU216HW,2013-06-19 02:53:00,
2013-06-18 20:55:00,70.9,50.8,29.71,WSW,248,4.7,6.6,49,0.00,,,0.00,WUHU216HW,2013-06-19 02:55:00,
2013-06-18 20:56:00,70.7,50.6,29.71,SW,225,4.0,6.6,49,0.00,,,0.00,WUHU216HW,2013-06-19 02:56:00,
2013-06-18 20:58:00,70.7,50.6,29.71,SW,225,6.3,8.1,49,0.00,,,0.00,WUHU216HW,2013-06-19 02:58:00,
2013-06-18 21:01:00,70.2,50.1,29.71,SW,225,4.7,8.1,49,0.00,,,0.00,WUHU216HW,2013-06-19 03:01:00,
2013-06-18 21:03:00,70.0,50.6,29.71,WSW,248,4.5,8.1,50,0.00,,,0.00,WUHU216HW,2013-06-19 03:03:00,
2013-06-18 21:04:00,69.8,50.4,29.72,SW,225,5.4,8.1,50,0.00,,,0.00,WUHU216HW,2013-06-19 03:04:00,
2013-06-18 21:06:00,69.7,50.2,29.72,West,270,6.3,8.1,50,0.00,,,0.00,WUHU216HW,2013-06-19 03:06:00,
2013-06-18 21:08:00,69.3,49.3,29.72,SW,225,7.8,9.7,49,0.00,,,0.00,WUHU216HW,2013-06-19 03:08:00,
2013-06-18 21:09:00,69.1,49.1,29.72,West,270,6.9,9.7,49,0.00,,,0.00,WUHU216HW,2013-06-19 03:09:00,
2013-06-18 21:11:00,68.8,49.4,29.73,WNW,293,8.5,10.8,50,0.00,,,0.00,WUHU216HW,2013-06-19 03:11:00,
2013-06-18 21:13:00,68.8,48.9,29.73,WSW,248,7.2,10.8,49,0.00,,,0.00,WUHU216HW,2013-06-19 03:13:00,
2013-06-18 21:16:00,68.4,47.4,29.73,WSW,248,10.7,15.0,47,0.00,,,0.00,WUHU216HW,2013-06-19 03:16:00,
2013-06-18 21:18:00,68.4,47.4,29.73,WNW,293,10.5,15.0,47,0.00,,,0.00,WUHU216HW,2013-06-19 03:18:00,
2013-06-18 21:19:00,68.4,47.4,29.73,WSW,248,8.7,15.0,47,0.00,,,0.00,WUHU216HW,2013-06-19 03:19:00,
2013-06-18 21:21:00,68.4,47.4,29.73,WNW,293,8.3,15.2,47,0.00,,,0.00,WUHU216HW,2013-06-19 03:21:00,
2013-06-18 21:23:00,68.4,46.7,29.73,WNW,293,9.8,15.2,46,0.00,,,0.00,WUHU216HW,2013-06-19 03:23:00,
2013-06-18 21:24:00,68.4,47.4,29.73,WNW,293,9.8,15.2,47,0.00,,,0.00,WUHU216HW,2013-06-19 03:24:00,
2013-06-18 21:28:00,68.4,47.4,29.72,NW,315,8.3,16.3,47,0.00,,,0.00,WUHU216HW,2013-06-19 03:28:00,
2013-06-18 21:29:00,68.4,47.4,29.72,NW,315,8.3,16.3,47,0.00,,,0.00,WUHU216HW,2013-06-19 03:29:00,
2013-06-18 21:34:00,68.2,47.8,29.73,NW,315,8.3,16.3,48,0.00,,,0.00,WUHU216HW,2013-06-19 03:34:00,
2013-06-18 21:37:00,68.0,47.6,29.73,West,270,6.9,14.2,48,0.00,,,0.00,WUHU216HW,2013-06-19 03:37:00,
2013-06-18 21:39:00,68.0,47.6,29.73,NW,315,10.5,14.6,48,0.00,,,0.00,WUHU216HW,2013-06-19 03:39:00,
2013-06-18 21:40:00,68.0,47.6,29.73,NW,315,5.8,14.6,48,0.00,,,0.00,WUHU216HW,2013-06-19 03:40:00,
2013-06-18 21:41:00,68.2,47.8,29.73,WNW,293,9.8,14.6,48,0.00,,,0.00,WUHU216HW,2013-06-19 03:41:00,
2013-06-18 21:42:00,68.2,47.8,29.73,WNW,293,9.8,14.6,48,0.00,,,0.00,WUHU216HW,2013-06-19 03:42:00,
2013-06-18 21:44:00,68.0,48.2,29.73,NW,315,6.3,14.6,49,0.00,,,0.00,WUHU216HW,2013-06-19 03:44:00,
2013-06-18 21:49:00,67.9,48.6,29.73,North,0,6.9,16.3,50,0.00,,,0.00,WUHU216HW,2013-06-19 03:49:00,
2013-06-18 21:51:00,67.9,48.6,29.73,WSW,248,3.8,16.3,50,0.00,,,0.00,WUHU216HW,2013-06-19 03:51:00,
2013-06-18 21:54:00,68.0,48.8,29.73,NW,315,5.4,16.3,50,0.00,,,0.00,WUHU216HW,2013-06-19 03:54:00,
2013-06-18 21:56:00,67.9,48.6,29.73,West,270,6.9,16.3,50,0.00,,,0.00,WUHU216HW,2013-06-19 03:56:00,
2013-06-18 21:58:00,67.7,48.4,29.73,WSW,248,8.5,16.3,50,0.00,,,0.00,WUHU216HW,2013-06-19 03:58:00,
2013-06-18 21:59:00,67.7,48.4,29.74,West,270,4.0,10.8,50,0.00,,,0.00,WUHU216HW,2013-06-19 03:59:00,
2013-06-18 22:01:00,67.9,48.6,29.74,West,270,6.9,10.8,50,0.00,,,0.00,WUHU216HW,2013-06-19 04:01:00,
2013-06-18 22:02:00,67.9,48.6,29.74,West,270,9.2,11.5,50,0.00,,,0.00,WUHU216HW,2013-06-19 04:02:00,
2013-06-18 22:03:00,67.7,49.0,29.74,West,270,7.6,11.5,51,0.00,,,0.00,WUHU216HW,2013-06-19 04:03:00,
2013-06-18 22:05:00,67.7,49.0,29.74,West,270,6.9,11.5,51,0.00,,,0.00,WUHU216HW,2013-06-19 04:05:00,
2013-06-18 22:06:00,67.7,49.0,29.74,West,270,6.9,11.5,51,0.00,,,0.00,WUHU216HW,2013-06-19 04:06:00,
2013-06-18 22:09:00,67.5,48.8,29.75,North,0,3.8,11.5,51,0.00,,,0.00,WUHU216HW,2013-06-19 04:09:00,
2013-06-18 22:10:00,67.5,48.8,29.75,West,270,2.5,11.5,51,0.00,,,0.00,WUHU216HW,2013-06-19 04:10:00,
2013-06-18 22:11:00,67.5,48.8,29.75,West,270,2.5,11.5,51,0.00,,,0.00,WUHU216HW,2013-06-19 04:11:00,
2013-06-18 22:13:00,67.3,48.6,29.75,NNE,23,3.8,10.8,51,0.00,,,0.00,WUHU216HW,2013-06-19 04:13:00,
2013-06-18 22:16:00,67.1,49.0,29.75,NNW,338,6.9,8.7,52,0.00,,,0.00,WUHU216HW,2013-06-19 04:16:00,
2013-06-18 22:18:00,67.0,49.2,29.75,NNE,23,5.8,11.5,53,0.00,,,0.00,WUHU216HW,2013-06-19 04:18:00,
2013-06-18 22:21:00,66.8,50.0,29.75,NNW,338,10.1,11.8,55,0.00,,,0.00,WUHU216HW,2013-06-19 04:21:00,
2013-06-18 22:24:00,66.6,50.4,29.75,North,0,9.8,15.0,56,0.00,,,0.00,WUHU216HW,2013-06-19 04:24:00,
2013-06-18 22:26:00,66.4,50.8,29.74,North,0,10.5,18.4,57,0.00,,,0.00,WUHU216HW,2013-06-19 04:26:00,
2013-06-18 22:27:00,66.2,51.0,29.74,NNE,23,8.7,18.4,58,0.00,,,0.00,WUHU216HW,2013-06-19 04:27:00,
2013-06-18 22:30:00,66.1,51.4,29.74,North,0,8.5,18.4,59,0.00,,,0.00,WUHU216HW,2013-06-19 04:30:00,
2013-06-18 22:31:00,66.1,51.4,29.74,North,0,8.5,18.4,59,0.00,,,0.00,WUHU216HW,2013-06-19 04:31:00,
2013-06-18 22:33:00,65.9,51.2,29.74,North,0,10.5,18.4,59,0.00,,,0.00,WUHU216HW,2013-06-19 04:33:00,
2013-06-18 22:34:00,65.9,51.2,29.74,North,0,10.3,15.0,59,0.00,,,0.00,WUHU216HW,2013-06-19 04:34:00,
2013-06-18 22:36:00,65.9,51.7,29.74,North,0,7.6,15.4,60,0.00,,,0.00,WUHU216HW,2013-06-19 04:36:00,
2013-06-18 22:38:00,65.7,51.5,29.75,North,0,8.9,15.4,60,0.00,,,0.00,WUHU216HW,2013-06-19 04:38:00,
2013-06-18 22:39:00,65.7,51.0,29.75,North,0,3.8,15.4,59,0.00,,,0.00,WUHU216HW,2013-06-19 04:39:00,
2013-06-18 22:41:00,65.7,51.5,29.75,NNW,338,5.6,15.4,60,0.00,,,0.00,WUHU216HW,2013-06-19 04:41:00,
2013-06-18 22:42:00,65.7,51.5,29.75,NNE,23,9.8,15.4,60,0.00,,,0.00,WUHU216HW,2013-06-19 04:42:00,
2013-06-18 22:43:00,65.5,51.3,29.75,North,0,6.0,15.4,60,0.00,,,0.00,WUHU216HW,2013-06-19 04:43:00,
2013-06-18 22:45:00,65.5,51.3,29.75,North,0,5.1,13.3,60,0.00,,,0.00,WUHU216HW,2013-06-19 04:45:00,
2013-06-18 22:46:00,65.5,51.3,29.75,North,0,5.1,13.3,60,0.00,,,0.00,WUHU216HW,2013-06-19 04:46:00,
2013-06-18 22:51:00,65.3,51.6,29.76,North,0,6.0,13.3,61,0.00,,,0.00,WUHU216HW,2013-06-19 04:51:00,
2013-06-18 22:53:00,65.2,51.4,29.76,NW,315,7.8,12.3,61,0.00,,,0.00,WUHU216HW,2013-06-19 04:53:00,
2013-06-18 22:55:00,65.2,51.4,29.75,North,0,9.4,12.3,61,0.00,,,0.00,WUHU216HW,2013-06-19 04:55:00,
2013-06-18 22:57:00,65.2,51.4,29.75,NE,45,7.2,12.3,61,0.00,,,0.00,WUHU216HW,2013-06-19 04:57:00,
2013-06-18 22:58:00,65.2,51.4,29.75,North,0,6.3,12.3,61,0.00,,,0.00,WUHU216HW,2013-06-19 04:58:00,
2013-06-18 23:00:00,65.2,51.4,29.75,North,0,9.4,12.3,61,0.00,,,0.00,WUHU216HW,2013-06-19 05:00:00,
2013-06-18 23:01:00,65.2,51.4,29.75,North,0,9.8,12.5,61,0.00,,,0.00,WUHU216HW,2013-06-19 05:01:00,
2013-06-18 23:02:00,65.2,51.4,29.75,North,0,9.8,12.5,61,0.00,,,0.00,WUHU216HW,2013-06-19 05:02:00,
2013-06-18 23:04:00,65.2,51.4,29.76,NNW,338,6.9,12.5,61,0.00,,,0.00,WUHU216HW,2013-06-19 05:04:00,
2013-06-18 23:07:00,65.2,51.4,29.76,North,0,6.7,12.5,61,0.00,,,0.00,WUHU216HW,2013-06-19 05:07:00,
2013-06-18 23:09:00,65.2,50.9,29.76,North,0,4.7,12.5,60,0.00,,,0.00,WUHU216HW,2013-06-19 05:09:00,
2013-06-18 23:11:00,65.0,51.2,29.76,North,0,4.0,9.9,61,0.00,,,0.00,WUHU216HW,2013-06-19 05:11:00,
2013-06-18 23:12:00,65.0,51.2,29.76,North,0,4.0,9.9,61,0.00,,,0.00,WUHU216HW,2013-06-19 05:12:00,
2013-06-18 23:13:00,64.8,51.0,29.76,North,0,4.0,9.9,61,0.00,,,0.00,WUHU216HW,2013-06-19 05:13:00,
2013-06-18 23:17:00,64.8,51.5,29.76,North,0,4.3,11.8,62,0.00,,,0.00,WUHU216HW,2013-06-19 05:17:00,
2013-06-18 23:20:00,64.6,51.3,29.76,North,0,9.2,13.3,62,0.00,,,0.00,WUHU216HW,2013-06-19 05:20:00,
2013-06-18 23:21:00,64.6,51.3,29.76,North,0,4.0,13.3,62,0.00,,,0.00,WUHU216HW,2013-06-19 05:21:00,
2013-06-18 23:22:00,64.6,51.3,29.76,North,0,4.0,13.3,62,0.00,,,0.00,WUHU216HW,2013-06-19 05:22:00,
2013-06-18 23:24:00,64.6,51.3,29.76,North,0,4.7,13.3,62,0.00,,,0.00,WUHU216HW,2013-06-19 05:24:00,
2013-06-18 23:25:00,64.6,51.3,29.76,NNW,338,4.3,13.3,62,0.00,,,0.00,WUHU216HW,2013-06-19 05:25:00,
2013-06-18 23:27:00,64.4,51.1,29.76,North,0,4.7,13.3,62,0.00,,,0.00,WUHU216HW,2013-06-19 05:27:00,
2013-06-18 23:28:00,64.4,51.5,29.76,NNW,338,6.9,13.3,63,0.00,,,0.00,WUHU216HW,2013-06-19 05:28:00,
2013-06-18 23:30:00,64.4,51.1,29.75,North,0,7.6,11.5,62,0.00,,,0.00,WUHU216HW,2013-06-19 05:30:00,
2013-06-18 23:32:00,64.3,51.4,29.75,NNW,338,4.9,11.5,63,0.00,,,0.00,WUHU216HW,2013-06-19 05:32:00,
2013-06-18 23:34:00,64.3,51.4,29.75,North,0,5.1,11.5,63,0.00,,,0.00,WUHU216HW,2013-06-19 05:34:00,
2013-06-18 23:36:00,64.3,51.4,29.76,NNW,338,4.5,11.5,63,0.00,,,0.00,WUHU216HW,2013-06-19 05:36:00,
2013-06-18 23:38:00,64.3,51.4,29.76,NNW,338,4.5,11.5,63,0.00,,,0.00,WUHU216HW,2013-06-19 05:38:00,
2013-06-18 23:41:00,64.1,51.2,29.76,WNW,293,5.1,9.1,63,0.00,,,0.00,WUHU216HW,2013-06-19 05:41:00,
2013-06-18 23:43:00,64.1,51.2,29.76,WNW,293,5.1,9.1,63,0.00,,,0.00,WUHU216HW,2013-06-19 05:43:00,
2013-06-18 23:46:00,63.7,51.7,29.75,NNW,338,5.4,9.9,65,0.00,,,0.00,WUHU216HW,2013-06-19 05:46:00,
2013-06-18 23:48:00,63.7,51.7,29.75,North,0,5.6,9.9,65,0.00,,,0.00,WUHU216HW,2013-06-19 05:48:00,
2013-06-18 23:50:00,63.5,51.6,29.75,NW,315,8.1,9.9,65,0.00,,,0.00,WUHU216HW,2013-06-19 05:50:00,
2013-06-18 23:51:00,63.4,51.4,29.76,WNW,293,4.9,9.9,65,0.00,,,0.00,WUHU216HW,2013-06-19 05:51:00,
2013-06-18 23:53:00,63.4,51.4,29.76,WNW,293,4.9,9.9,65,0.00,,,0.00,WUHU216HW,2013-06-19 05:53:00,
2013-06-18 23:55:00,63.2,51.6,29.76,WNW,293,4.3,9.9,66,0.00,,,0.00,WUHU216HW,2013-06-19 05:55:00,
2013-06-18 23:56:00,63.0,51.4,29.76,West,270,4.9,9.9,66,0.00,,,0.00,WUHU216HW,2013-06-19 05:56:00,
2013-06-18 23:58:00,63.0,51.4,29.76,NW,315,6.5,9.9,66,0.00,,,0.00,WUHU216HW,2013-06-19 05:58:00,
2013-06-18 23:59:00,63.0,51.8,29.76,NW,315,4.7,9.9,67,0.00,,,0.00,WUHU216HW,2013-06-19 05:59:00,